AMX038 LEBL-MMMX

Flight info

Callsign AMX038
Flight time 11h 45m
Altitude 35000
Route SENIA DCT DORMI DCT CRETA DCT NEXAS DCT DISVU DCT ADUXO DCT CJN N733 ZMR L155 ADORO/N0490F360 DCT EPOPO DCT ARMED/M085F360 DCT 43N020W 43N030W 42N040W 40N050W/M085F380 36N060W DCT BALOO DCT BALTN M329 GRATX/N0486F400 Y642 LULLS Y196 CANOA UM346 AXOMU UT31 NUBEL UM580 RIBET UT101 ENAGA ENAGA3A
Aircraft B788/H-SDE1E2E3FGHIJ2J3J4J5M1RWXY/LB1D1

Departure

Time 2026-05-07 06:39
Airport Josep Tarradellas Barcelona-El Prat Airport (LEBL)

Arrival

Time 2026-05-07 18:24
Airport Mexico City Benito Juárez International Airport (MMMX)
Time Latitude Longitude Altitude Speed Heading
2026-05-07 05:23 41.28897 2.07689 9 ft 0 kts 285°
2026-05-07 05:54 41.28896 2.07697 8 ft 3 kts 285°
2026-05-07 05:54 41.28891 2.07720 10 ft 3 kts 285°
2026-05-07 05:54 41.28886 2.07744 11 ft 3 kts 285°
2026-05-07 05:54 41.28881 2.07768 10 ft 3 kts 285°
2026-05-07 05:55 41.28874 2.07786 10 ft 2 kts 305°
2026-05-07 05:55 41.28863 2.07806 12 ft 3 kts 309°
2026-05-07 05:55 41.28851 2.07825 10 ft 3 kts 309°
2026-05-07 05:55 41.28839 2.07844 10 ft 3 kts 309°
2026-05-07 05:56 41.28824 2.07861 11 ft 3 kts 333°
2026-05-07 05:56 41.28819 2.07863 10 ft 0 kts 340°
2026-05-07 06:06 41.28828 2.07859 8 ft 2 kts 340°
2026-05-07 06:07 41.28851 2.07850 8 ft 4 kts 347°
2026-05-07 06:07 41.28877 2.07858 8 ft 4 kts 43°
2026-05-07 06:07 41.28889 2.07889 10 ft 5 kts 68°
2026-05-07 06:07 41.28905 2.07942 10 ft 7 kts 67°
2026-05-07 06:08 41.28929 2.08015 8 ft 10 kts 65°
2026-05-07 06:08 41.28960 2.08100 8 ft 10 kts 65°
2026-05-07 06:08 41.28980 2.08157 8 ft 6 kts 65°
2026-05-07 06:08 41.28995 2.08199 8 ft 4 kts 65°
2026-05-07 06:09 41.29006 2.08232 8 ft 3 kts 68°
2026-05-07 06:09 41.29013 2.08257 8 ft 3 kts 67°
2026-05-07 06:09 41.29019 2.08275 10 ft 2 kts 67°
2026-05-07 06:09 41.29025 2.08292 8 ft 3 kts 66°
2026-05-07 06:10 41.29038 2.08330 8 ft 6 kts 65°
2026-05-07 06:10 41.29055 2.08377 9 ft 4 kts 60°
2026-05-07 06:10 41.29063 2.08386 9 ft 1 kts 22°
2026-05-07 06:10 41.29077 2.08393 9 ft 3 kts 20°
2026-05-07 06:11 41.29110 2.08409 9 ft 7 kts 19°
2026-05-07 06:11 41.29163 2.08433 8 ft 10 kts 17°
2026-05-07 06:11 41.29233 2.08457 8 ft 9 kts 355°
2026-05-07 06:11 41.29283 2.08432 8 ft 7 kts 336°
2026-05-07 06:12 41.29324 2.08408 8 ft 6 kts 336°
2026-05-07 06:12 41.29356 2.08389 8 ft 5 kts 335°
2026-05-07 06:12 41.29382 2.08372 8 ft 4 kts 335°
2026-05-07 06:12 41.29405 2.08358 8 ft 3 kts 335°
2026-05-07 06:13 41.29425 2.08346 9 ft 3 kts 335°
2026-05-07 06:13 41.29444 2.08334 8 ft 4 kts 335°
2026-05-07 06:13 41.29476 2.08315 8 ft 6 kts 336°
2026-05-07 06:13 41.29518 2.08291 8 ft 6 kts 336°
2026-05-07 06:14 41.29557 2.08268 8 ft 6 kts 335°
2026-05-07 06:14 41.29594 2.08245 10 ft 6 kts 335°
2026-05-07 06:14 41.29627 2.08217 8 ft 5 kts 308°
2026-05-07 06:14 41.29635 2.08182 8 ft 3 kts 253°
2026-05-07 06:15 41.29625 2.08151 8 ft 5 kts 248°
2026-05-07 06:15 41.29607 2.08100 8 ft 7 kts 244°
2026-05-07 06:15 41.29582 2.08030 8 ft 9 kts 245°
2026-05-07 06:15 41.29552 2.07942 8 ft 11 kts 246°
2026-05-07 06:16 41.29518 2.07840 9 ft 12 kts 245°
2026-05-07 06:16 41.29486 2.07747 9 ft 11 kts 245°
2026-05-07 06:16 41.29458 2.07663 10 ft 9 kts 246°
2026-05-07 06:16 41.29433 2.07591 9 ft 8 kts 244°
2026-05-07 06:17 41.29410 2.07528 9 ft 7 kts 245°
2026-05-07 06:17 41.29391 2.07473 9 ft 6 kts 246°
2026-05-07 06:17 41.29376 2.07424 9 ft 5 kts 247°
2026-05-07 06:17 41.29362 2.07383 8 ft 4 kts 244°
2026-05-07 06:18 41.29349 2.07348 8 ft 4 kts 244°
2026-05-07 06:18 41.29337 2.07314 8 ft 4 kts 245°
2026-05-07 06:18 41.29326 2.07282 8 ft 4 kts 246°
2026-05-07 06:18 41.29316 2.07251 8 ft 4 kts 246°
2026-05-07 06:19 41.29306 2.07220 8 ft 3 kts 247°
2026-05-07 06:19 41.29297 2.07192 8 ft 3 kts 246°
2026-05-07 06:19 41.29287 2.07163 8 ft 3 kts 245°
2026-05-07 06:19 41.29277 2.07133 8 ft 4 kts 245°
2026-05-07 06:20 41.29265 2.07102 8 ft 4 kts 244°
2026-05-07 06:20 41.29253 2.07068 8 ft 4 kts 244°
2026-05-07 06:20 41.29240 2.07032 8 ft 4 kts 244°
2026-05-07 06:20 41.29226 2.06994 8 ft 5 kts 245°
2026-05-07 06:21 41.29212 2.06954 8 ft 5 kts 245°
2026-05-07 06:21 41.29198 2.06912 8 ft 5 kts 245°
2026-05-07 06:21 41.29183 2.06871 8 ft 5 kts 245°
2026-05-07 06:21 41.29169 2.06828 9 ft 5 kts 246°
2026-05-07 06:22 41.29154 2.06784 8 ft 5 kts 246°
2026-05-07 06:22 41.29142 2.06749 8 ft 5 kts 246°
2026-05-07 06:22 41.29136 2.06731 8 ft 6 kts 246°
2026-05-07 06:23 41.29110 2.06653 8 ft 11 kts 245°
2026-05-07 06:23 41.29080 2.06567 8 ft 12 kts 248°
2026-05-07 06:23 41.29094 2.06448 10 ft 13 kts 292°
2026-05-07 06:23 41.29138 2.06354 8 ft 10 kts 329°
2026-05-07 06:24 41.29197 2.06316 9 ft 9 kts 335°
2026-05-07 06:24 41.29246 2.06288 8 ft 7 kts 337°
2026-05-07 06:24 41.29287 2.06265 8 ft 6 kts 337°
2026-05-07 06:24 41.29321 2.06246 8 ft 5 kts 337°
2026-05-07 06:25 41.29345 2.06231 8 ft 3 kts 336°
2026-05-07 06:25 41.29363 2.06226 8 ft 2 kts
2026-05-07 06:25 41.29380 2.06230 8 ft 3 kts 20°
2026-05-07 06:25 41.29402 2.06251 8 ft 5 kts 45°
2026-05-07 06:26 41.29424 2.06298 8 ft 7 kts 61°
2026-05-07 06:26 41.29450 2.06371 10 ft 10 kts 65°
2026-05-07 06:26 41.29484 2.06467 8 ft 13 kts 66°
2026-05-07 06:26 41.29519 2.06583 8 ft 15 kts 68°
2026-05-07 06:27 41.29567 2.06709 8 ft 16 kts 66°
2026-05-07 06:27 41.29611 2.06845 8 ft 15 kts 66°
2026-05-07 06:27 41.29654 2.06968 8 ft 14 kts 66°
2026-05-07 06:27 41.29690 2.07079 8 ft 12 kts 66°
2026-05-07 06:28 41.29723 2.07176 8 ft 11 kts 64°
2026-05-07 06:28 41.29755 2.07263 8 ft 10 kts 64°
2026-05-07 06:28 41.29773 2.07315 8 ft 9 kts 64°
2026-05-07 06:28 41.29806 2.07407 8 ft 8 kts 64°
2026-05-07 06:29 41.29821 2.07447 9 ft 7 kts 65°
2026-05-07 06:29 41.29839 2.07500 8 ft 6 kts 68°
2026-05-07 06:29 41.29849 2.07550 8 ft 5 kts 81°
2026-05-07 06:29 41.29854 2.07585 9 ft 2 kts 61°
2026-05-07 06:30 41.29863 2.07604 8 ft 3 kts 56°
2026-05-07 06:30 41.29880 2.07637 9 ft 6 kts 58°
2026-05-07 06:30 41.29904 2.07698 9 ft 10 kts 63°
2026-05-07 06:30 41.29941 2.07799 8 ft 15 kts 64°
2026-05-07 06:31 41.29989 2.07936 8 ft 17 kts 70°
2026-05-07 06:31 41.30040 2.08093 8 ft 19 kts 65°
2026-05-07 06:31 41.30094 2.08250 8 ft 18 kts 65°
2026-05-07 06:31 41.30144 2.08395 8 ft 17 kts 65°
2026-05-07 06:32 41.30193 2.08536 8 ft 16 kts 66°
2026-05-07 06:32 41.30240 2.08673 8 ft 16 kts 64°
2026-05-07 06:32 41.30284 2.08803 8 ft 15 kts 65°
2026-05-07 06:32 41.30326 2.08923 8 ft 14 kts 64°
2026-05-07 06:33 41.30365 2.09036 9 ft 13 kts 65°
2026-05-07 06:33 41.30399 2.09134 10 ft 10 kts 65°
2026-05-07 06:33 41.30423 2.09210 12 ft 8 kts 66°
2026-05-07 06:33 41.30445 2.09276 13 ft 8 kts 65°
2026-05-07 06:34 41.30471 2.09348 10 ft 9 kts 65°
2026-05-07 06:34 41.30500 2.09432 9 ft 11 kts 65°
2026-05-07 06:34 41.30534 2.09531 9 ft 12 kts 66°
2026-05-07 06:34 41.30572 2.09642 8 ft 14 kts 64°
2026-05-07 06:35 41.30613 2.09759 8 ft 14 kts 65°
2026-05-07 06:35 41.30656 2.09884 8 ft 15 kts 64°
2026-05-07 06:35 41.30702 2.10016 8 ft 16 kts 67°
2026-05-07 06:35 41.30751 2.10160 8 ft 17 kts 62°
2026-05-07 06:36 41.30752 2.10288 9 ft 13 kts 140°
2026-05-07 06:36 41.30679 2.10332 7 ft 11 kts 156°
2026-05-07 06:36 41.30613 2.10373 7 ft 9 kts 155°
2026-05-07 06:36 41.30579 2.10380 7 ft 3 kts 210°
2026-05-07 06:37 41.30573 2.10371 7 ft 1 kts 242°
2026-05-07 06:37 41.30572 2.10368 7 ft 0 kts 246°
2026-05-07 06:38 41.30567 2.10355 7 ft 5 kts 246°
2026-05-07 06:38 41.30512 2.10190 7 ft 43 kts 245°
2026-05-07 06:38 41.30306 2.09590 9 ft 99 kts 245°
2026-05-07 06:39 41.29952 2.08566 12 ft 147 kts 245°
2026-05-07 06:39 41.29472 2.07167 267 ft 173 kts 248°
2026-05-07 06:39 41.28947 2.05691 1084 ft 178 kts 245°
2026-05-07 06:39 41.28401 2.04106 1680 ft 199 kts 245°
2026-05-07 06:40 41.27810 2.02327 2088 ft 223 kts 245°
2026-05-07 06:40 41.27142 2.00370 2393 ft 248 kts 245°
2026-05-07 06:40 41.26402 1.98226 2914 ft 264 kts 245°
2026-05-07 06:40 41.25640 1.96014 3869 ft 261 kts 245°
2026-05-07 06:41 41.24884 1.93814 4737 ft 263 kts 246°
2026-05-07 06:41 41.24121 1.91598 5592 ft 264 kts 246°
2026-05-07 06:41 41.23353 1.89373 6430 ft 266 kts 246°
2026-05-07 06:41 41.22669 1.87080 7171 ft 268 kts 260°
2026-05-07 06:42 41.22471 1.84616 7911 ft 270 kts 263°
2026-05-07 06:42 41.22209 1.82135 8667 ft 273 kts 262°
2026-05-07 06:42 41.21933 1.79577 9017 ft 287 kts 263°
2026-05-07 06:42 41.21679 1.76941 9008 ft 285 kts 263°
2026-05-07 06:43 41.21436 1.74363 9003 ft 279 kts 263°
2026-05-07 06:43 41.21407 1.71814 9007 ft 276 kts 283°
2026-05-07 06:43 41.22167 1.69478 9102 ft 281 kts 308°
2026-05-07 06:43 41.23524 1.67636 9950 ft 280 kts 315°
2026-05-07 06:44 41.24995 1.65840 10269 ft 299 kts 317°
2026-05-07 06:44 41.26627 1.63925 10325 ft 326 kts 317°
2026-05-07 06:44 41.28384 1.61841 10556 ft 345 kts 317°
2026-05-07 06:44 41.30166 1.59693 11293 ft 348 kts 316°
2026-05-07 06:45 41.31951 1.57544 11934 ft 353 kts 317°
2026-05-07 06:45 41.33864 1.55470 12574 ft 359 kts 329°
2026-05-07 06:45 41.36222 1.54316 13228 ft 366 kts 348°
2026-05-07 06:45 41.38748 1.53720 13825 ft 372 kts 350°
2026-05-07 06:46 41.41313 1.53189 14441 ft 375 kts 350°
2026-05-07 06:46 41.43897 1.52632 15038 ft 378 kts 349°
2026-05-07 06:46 41.46498 1.52030 15660 ft 380 kts 348°
2026-05-07 06:46 41.49120 1.51428 16274 ft 384 kts 349°
2026-05-07 06:47 41.51761 1.50841 16869 ft 387 kts 349°
2026-05-07 06:47 41.54431 1.50247 17476 ft 390 kts 349°
2026-05-07 06:47 41.57116 1.49643 18058 ft 393 kts 349°
2026-05-07 06:47 41.59825 1.49042 18577 ft 396 kts 349°
2026-05-07 06:48 41.62556 1.48439 19061 ft 400 kts 348°
2026-05-07 06:48 41.65312 1.47825 19533 ft 403 kts 348°
2026-05-07 06:48 41.68084 1.47206 20017 ft 406 kts 348°
2026-05-07 06:48 41.70884 1.46583 20477 ft 409 kts 348°
2026-05-07 06:49 41.73701 1.45955 20935 ft 412 kts 348°
2026-05-07 06:49 41.76539 1.45321 21369 ft 415 kts 348°
2026-05-07 06:49 41.79394 1.44683 21826 ft 418 kts 348°
2026-05-07 06:49 41.82281 1.44037 22265 ft 421 kts 348°
2026-05-07 06:50 41.85180 1.43388 22693 ft 424 kts 347°
2026-05-07 06:50 41.88097 1.42734 23128 ft 427 kts 347°
2026-05-07 06:50 41.91037 1.42075 23558 ft 429 kts 347°
2026-05-07 06:50 41.93993 1.41412 23898 ft 432 kts 347°
2026-05-07 06:51 41.96957 1.40732 24258 ft 433 kts 345°
2026-05-07 06:51 41.99770 1.39488 24599 ft 429 kts 331°
2026-05-07 06:51 42.02334 1.37480 24941 ft 426 kts 319°
2026-05-07 06:51 42.04528 1.34818 25278 ft 423 kts 307°
2026-05-07 06:52 42.06254 1.31644 25609 ft 420 kts 296°
2026-05-07 06:52 42.07460 1.28100 25928 ft 417 kts 285°
2026-05-07 06:52 42.08112 1.24301 26263 ft 416 kts 274°
2026-05-07 06:52 42.08183 1.20412 26603 ft 415 kts 263°
2026-05-07 06:53 42.07680 1.16601 26925 ft 415 kts 252°
2026-05-07 06:53 42.06621 1.13004 27249 ft 415 kts 241°
2026-05-07 06:53 42.05036 1.09740 27540 ft 418 kts 230°
2026-05-07 06:53 42.02985 1.06959 27867 ft 421 kts 219°
2026-05-07 06:54 42.00540 1.04781 28162 ft 425 kts 208°
2026-05-07 06:54 41.97775 1.03304 28468 ft 431 kts 197°
2026-05-07 06:54 41.94833 1.02437 28718 ft 435 kts 195°
2026-05-07 06:54 41.91858 1.01630 29022 ft 437 kts 194°
2026-05-07 06:55 41.88867 1.00840 29277 ft 439 kts 194°
2026-05-07 06:55 41.85874 1.00042 29582 ft 440 kts 195°
2026-05-07 06:55 41.82866 0.99228 29843 ft 441 kts 195°
2026-05-07 06:55 41.79851 0.98416 30113 ft 443 kts 195°
2026-05-07 06:56 41.76829 0.97610 30336 ft 444 kts 195°
2026-05-07 06:56 41.73785 0.96799 30592 ft 445 kts 195°
2026-05-07 06:56 41.70745 0.95985 30818 ft 446 kts 195°
2026-05-07 06:56 41.67692 0.95169 31046 ft 448 kts 195°
2026-05-07 06:57 41.64679 0.94366 31280 ft 449 kts 195°
2026-05-07 06:57 41.61613 0.93549 31515 ft 449 kts 195°
2026-05-07 06:57 41.58541 0.92732 31733 ft 450 kts 195°
2026-05-07 06:57 41.55466 0.91913 31948 ft 451 kts 195°
2026-05-07 06:58 41.52380 0.91093 32161 ft 452 kts 194°
2026-05-07 06:58 41.49291 0.90274 32366 ft 453 kts 194°
2026-05-07 06:58 41.46190 0.89452 32572 ft 454 kts 194°
2026-05-07 06:58 41.43087 0.88629 32753 ft 456 kts 194°
2026-05-07 06:59 41.39974 0.87806 32971 ft 456 kts 194°
2026-05-07 06:59 41.36859 0.86982 33165 ft 457 kts 194°
2026-05-07 06:59 41.33742 0.86159 33425 ft 456 kts 194°
2026-05-07 06:59 41.30625 0.85337 33702 ft 455 kts 194°
2026-05-07 07:00 41.27520 0.84519 33995 ft 454 kts 194°
2026-05-07 07:00 41.24423 0.83703 34224 ft 453 kts 194°
2026-05-07 07:00 41.21330 0.82889 34421 ft 453 kts 194°
2026-05-07 07:00 41.18236 0.82075 34611 ft 453 kts 194°
2026-05-07 07:01 41.15142 0.81263 34780 ft 454 kts 194°
2026-05-07 07:01 41.12042 0.80450 34972 ft 454 kts 194°
2026-05-07 07:01 41.05814 0.78817 35003 ft 457 kts 194°
2026-05-07 07:02 40.99696 0.76765 35020 ft 450 kts 206°
2026-05-07 07:02 40.94397 0.72623 35020 ft 444 kts 222°
2026-05-07 07:03 40.90278 0.66527 35021 ft 443 kts 238°
2026-05-07 07:03 40.87760 0.59101 35020 ft 447 kts 254°
2026-05-07 07:04 40.87048 0.50917 35021 ft 453 kts 267°
2026-05-07 07:04 40.87083 0.42644 35010 ft 453 kts 267°
2026-05-07 07:05 40.87132 0.34310 35012 ft 453 kts 267°
2026-05-07 07:05 40.87166 0.25982 35003 ft 454 kts 267°
2026-05-07 07:06 40.87195 0.17641 35004 ft 454 kts 267°
2026-05-07 07:06 40.87220 0.09290 35004 ft 455 kts 267°
2026-05-07 07:07 40.87238 0.00932 35007 ft 455 kts 267°
2026-05-07 07:07 40.87249 -0.07430 35005 ft 455 kts 267°
2026-05-07 07:08 40.87255 -0.15797 34999 ft 456 kts 267°
2026-05-07 07:08 40.87255 -0.24163 34995 ft 455 kts 267°
2026-05-07 07:09 40.87249 -0.32529 35001 ft 455 kts 266°
2026-05-07 07:09 40.87237 -0.40837 34997 ft 455 kts 266°
2026-05-07 07:10 40.87218 -0.49214 34998 ft 456 kts 266°
2026-05-07 07:10 40.87194 -0.57578 34992 ft 455 kts 266°
2026-05-07 07:11 40.87163 -0.65947 34997 ft 456 kts 266°
2026-05-07 07:11 40.87127 -0.74332 34996 ft 457 kts 266°
2026-05-07 07:12 40.86183 -0.82543 35003 ft 452 kts 249°
2026-05-07 07:12 40.84045 -0.90357 34990 ft 453 kts 248°
2026-05-07 07:13 40.81882 -0.98165 34988 ft 453 kts 248°
2026-05-07 07:13 40.79716 -1.05973 34991 ft 453 kts 248°
2026-05-07 07:14 40.77543 -1.13772 34985 ft 453 kts 248°
2026-05-07 07:14 40.75365 -1.21574 34988 ft 453 kts 248°
2026-05-07 07:15 40.73182 -1.29367 34987 ft 453 kts 248°
2026-05-07 07:15 40.70991 -1.37164 34984 ft 454 kts 248°
2026-05-07 07:16 40.68794 -1.44959 34987 ft 454 kts 248°
2026-05-07 07:16 40.66591 -1.52751 34978 ft 454 kts 248°
2026-05-07 07:17 40.64398 -1.60483 34979 ft 453 kts 248°
2026-05-07 07:17 40.62186 -1.68264 34975 ft 454 kts 248°
2026-05-07 07:18 40.59965 -1.76048 34973 ft 454 kts 248°
2026-05-07 07:18 40.57737 -1.83836 34971 ft 455 kts 248°
2026-05-07 07:19 40.55504 -1.91615 34966 ft 455 kts 248°
2026-05-07 07:19 40.53642 -1.98087 34960 ft 455 kts 248°
2026-05-07 07:20 40.51395 -2.05870 34966 ft 455 kts 248°
2026-05-07 07:20 40.49142 -2.13643 34959 ft 456 kts 247°
2026-05-07 07:21 40.46879 -2.21424 34956 ft 456 kts 247°
2026-05-07 07:21 40.44609 -2.29207 34953 ft 457 kts 247°
2026-05-07 07:22 40.42330 -2.36998 34952 ft 457 kts 247°
2026-05-07 07:22 40.40061 -2.44785 34955 ft 457 kts 250°
2026-05-07 07:23 40.39042 -2.53043 34967 ft 464 kts 269°
2026-05-07 07:23 40.40154 -2.61435 34962 ft 474 kts 287°
2026-05-07 07:24 40.43023 -2.69285 34946 ft 478 kts 293°
2026-05-07 07:24 40.46070 -2.77044 34951 ft 478 kts 293°
2026-05-07 07:25 40.50624 -2.88719 34945 ft 479 kts 293°
2026-05-07 07:26 40.53660 -2.96513 34950 ft 479 kts 293°
2026-05-07 07:26 40.56695 -3.04334 34951 ft 480 kts 293°
2026-05-07 07:27 40.59704 -3.12105 34952 ft 480 kts 293°
2026-05-07 07:27 40.62731 -3.19946 34957 ft 481 kts 293°
2026-05-07 07:28 40.65756 -3.27800 34961 ft 481 kts 293°
2026-05-07 07:28 40.68777 -3.35666 34963 ft 481 kts 293°
2026-05-07 07:29 40.71793 -3.43541 34966 ft 481 kts 293°
2026-05-07 07:29 40.74807 -3.51431 34964 ft 482 kts 292°
2026-05-07 07:30 40.77820 -3.59341 34955 ft 483 kts 292°
2026-05-07 07:30 40.80827 -3.67255 34953 ft 482 kts 292°
2026-05-07 07:31 40.83832 -3.75185 34948 ft 483 kts 292°
2026-05-07 07:31 40.86828 -3.83111 34936 ft 482 kts 292°
2026-05-07 07:32 40.89796 -3.90988 34934 ft 482 kts 292°
2026-05-07 07:32 40.92781 -3.98930 34922 ft 483 kts 292°
2026-05-07 07:33 40.95764 -4.06889 34917 ft 483 kts 292°
2026-05-07 07:33 40.98743 -4.14858 34912 ft 483 kts 292°
2026-05-07 07:34 41.01718 -4.22838 34915 ft 483 kts 292°
2026-05-07 07:34 41.04698 -4.30838 34904 ft 483 kts 292°
2026-05-07 07:35 41.07670 -4.38839 34907 ft 483 kts 292°
2026-05-07 07:35 41.10641 -4.46861 34911 ft 484 kts 292°
2026-05-07 07:36 41.13583 -4.54825 34909 ft 484 kts 292°
2026-05-07 07:36 41.16538 -4.62847 34915 ft 484 kts 292°
2026-05-07 07:37 41.19483 -4.70892 34911 ft 484 kts 292°
2026-05-07 07:37 41.22421 -4.78930 34915 ft 485 kts 292°
2026-05-07 07:38 41.25367 -4.87016 34914 ft 485 kts 292°
2026-05-07 07:38 41.28299 -4.95089 34912 ft 485 kts 292°
2026-05-07 07:39 41.31231 -5.03174 34913 ft 485 kts 292°
2026-05-07 07:39 41.34134 -5.11199 34917 ft 484 kts 292°
2026-05-07 07:40 41.37051 -5.19287 34911 ft 484 kts 292°
2026-05-07 07:40 41.39965 -5.27388 34919 ft 484 kts 292°
2026-05-07 07:41 41.42872 -5.35495 34917 ft 485 kts 292°
2026-05-07 07:41 41.45763 -5.43579 34926 ft 485 kts 292°
2026-05-07 07:42 41.48667 -5.51722 34926 ft 485 kts 292°
2026-05-07 07:42 41.51471 -5.59845 34946 ft 482 kts 285°
2026-05-07 07:43 41.52608 -5.68564 34952 ft 475 kts 265°
2026-05-07 07:43 41.52069 -5.77337 34938 ft 473 kts 262°
2026-05-07 07:44 41.51430 -5.86034 34945 ft 474 kts 262°
2026-05-07 07:44 41.50794 -5.94797 34940 ft 474 kts 262°
2026-05-07 07:45 41.50142 -6.03574 34940 ft 475 kts 262°
2026-05-07 07:45 41.49488 -6.12348 34943 ft 475 kts 263°
2026-05-07 07:46 41.48828 -6.21084 34942 ft 476 kts 263°
2026-05-07 07:46 41.48508 -6.28666 34968 ft 477 kts 274°
2026-05-07 07:47 41.49554 -6.37431 34943 ft 479 kts 278°
2026-05-07 07:47 41.50717 -6.46171 34940 ft 479 kts 279°
2026-05-07 07:48 41.51863 -6.54915 34945 ft 478 kts 279°
2026-05-07 07:48 41.53003 -6.63618 34941 ft 477 kts 279°
2026-05-07 07:49 41.54137 -6.72355 34944 ft 477 kts 279°
2026-05-07 07:49 41.55266 -6.81095 34941 ft 477 kts 279°
2026-05-07 07:50 41.56379 -6.89769 34943 ft 476 kts 279°
2026-05-07 07:50 41.57492 -6.98499 34939 ft 475 kts 279°
2026-05-07 07:51 41.58596 -7.07211 34941 ft 475 kts 279°
2026-05-07 07:51 41.59693 -7.15925 34942 ft 475 kts 279°
2026-05-07 07:52 41.60774 -7.24559 34941 ft 474 kts 280°
2026-05-07 07:52 41.61852 -7.33233 34939 ft 473 kts 280°
2026-05-07 07:53 41.62925 -7.41917 34933 ft 472 kts 280°
2026-05-07 07:53 41.63987 -7.50568 34934 ft 471 kts 280°
2026-05-07 07:54 41.65041 -7.59209 34933 ft 470 kts 280°
2026-05-07 07:54 41.66086 -7.67831 34924 ft 469 kts 281°
2026-05-07 07:55 41.67123 -7.76444 34918 ft 468 kts 281°
2026-05-07 07:55 41.68146 -7.84997 34915 ft 467 kts 281°
2026-05-07 07:56 41.69165 -7.93573 34911 ft 466 kts 281°
2026-05-07 07:56 41.70176 -8.02139 34903 ft 464 kts 281°
2026-05-07 07:57 41.71168 -8.10598 34904 ft 463 kts 281°
2026-05-07 07:57 41.72161 -8.19124 34910 ft 462 kts 281°
2026-05-07 07:58 41.73146 -8.27632 34908 ft 462 kts 281°
2026-05-07 07:58 41.74123 -8.36132 34908 ft 461 kts 281°
2026-05-07 07:59 41.75092 -8.44618 34903 ft 460 kts 281°
2026-05-07 07:59 41.76053 -8.53094 34902 ft 460 kts 281°
2026-05-07 08:00 41.77009 -8.61576 34907 ft 460 kts 281°
2026-05-07 08:00 41.77951 -8.69998 34911 ft 460 kts 281°
2026-05-07 08:01 41.78893 -8.78476 34916 ft 459 kts 281°
2026-05-07 08:01 41.79829 -8.86956 34917 ft 459 kts 281°
2026-05-07 08:02 41.80757 -8.95425 34917 ft 458 kts 281°
2026-05-07 08:02 41.81677 -9.03883 34917 ft 458 kts 281°
2026-05-07 08:03 41.82591 -9.12343 34913 ft 458 kts 281°
2026-05-07 08:03 41.83493 -9.20752 34913 ft 458 kts 281°
2026-05-07 08:04 41.84393 -9.29202 34915 ft 457 kts 281°
2026-05-07 08:04 41.84840 -9.33417 35107 ft 454 kts 281°
2026-05-07 08:04 41.85281 -9.37605 35381 ft 453 kts 281°
2026-05-07 08:04 41.85723 -9.41792 35550 ft 453 kts 281°
2026-05-07 08:05 41.86163 -9.45985 35693 ft 454 kts 280°
2026-05-07 08:05 41.86601 -9.50184 35842 ft 455 kts 280°
2026-05-07 08:05 41.87040 -9.54401 35913 ft 457 kts 280°
2026-05-07 08:06 41.87913 -9.62838 35918 ft 458 kts 280°
2026-05-07 08:06 41.88778 -9.71267 35924 ft 454 kts 280°
2026-05-07 08:07 41.89635 -9.79659 35923 ft 452 kts 280°
2026-05-07 08:07 41.90338 -9.86604 35927 ft 451 kts 280°
2026-05-07 08:08 41.91313 -9.96297 35930 ft 450 kts 280°
2026-05-07 08:08 41.92004 -10.03223 35932 ft 449 kts 280°
2026-05-07 08:09 41.92827 -10.11534 35940 ft 448 kts 280°
2026-05-07 08:09 41.93651 -10.19848 35936 ft 448 kts 282°
2026-05-07 08:10 41.94970 -10.28006 35951 ft 447 kts 284°
2026-05-07 08:10 41.96306 -10.36165 35956 ft 446 kts 284°
2026-05-07 08:11 41.97653 -10.44319 35953 ft 446 kts 284°
2026-05-07 08:11 41.98980 -10.52455 35956 ft 445 kts 284°
2026-05-07 08:12 42.00115 -10.59418 35956 ft 445 kts 284°
2026-05-07 08:12 42.01425 -10.67502 35954 ft 445 kts 284°
2026-05-07 08:13 42.02741 -10.75652 35957 ft 445 kts 284°
2026-05-07 08:13 42.04047 -10.83792 35953 ft 445 kts 284°
2026-05-07 08:14 42.05351 -10.91948 35956 ft 446 kts 284°
2026-05-07 08:14 42.06649 -11.00111 35962 ft 446 kts 283°
2026-05-07 08:15 42.07936 -11.08245 35962 ft 447 kts 283°
2026-05-07 08:15 42.09227 -11.16442 35959 ft 447 kts 283°
2026-05-07 08:16 42.10512 -11.24640 35958 ft 447 kts 283°
2026-05-07 08:16 42.11786 -11.32810 35960 ft 447 kts 283°
2026-05-07 08:17 42.13059 -11.41014 35959 ft 447 kts 283°
2026-05-07 08:17 42.14322 -11.49193 35970 ft 448 kts 283°
2026-05-07 08:18 42.15586 -11.57427 35967 ft 448 kts 283°
2026-05-07 08:18 42.16845 -11.65663 35979 ft 447 kts 283°
2026-05-07 08:19 42.18095 -11.73883 35978 ft 447 kts 283°
2026-05-07 08:19 42.19330 -11.82042 35962 ft 447 kts 282°
2026-05-07 08:20 42.20567 -11.90261 35966 ft 446 kts 282°
2026-05-07 08:20 42.21795 -11.98461 35981 ft 446 kts 282°
2026-05-07 08:21 42.23018 -12.06671 35976 ft 445 kts 282°
2026-05-07 08:21 42.24225 -12.14816 35962 ft 445 kts 282°
2026-05-07 08:22 42.25434 -12.23017 35961 ft 445 kts 282°
2026-05-07 08:22 42.26637 -12.31216 35974 ft 445 kts 282°
2026-05-07 08:23 42.27834 -12.39422 35961 ft 444 kts 282°
2026-05-07 08:23 42.29014 -12.47549 35968 ft 444 kts 282°
2026-05-07 08:24 42.30198 -12.55749 35960 ft 443 kts 282°
2026-05-07 08:24 42.31366 -12.63885 35973 ft 444 kts 281°
2026-05-07 08:25 42.32537 -12.72079 35971 ft 444 kts 281°
2026-05-07 08:25 42.33702 -12.80278 35976 ft 444 kts 281°
2026-05-07 08:26 42.35440 -12.92591 35966 ft 444 kts 281°
2026-05-07 08:26 42.36591 -13.00806 35966 ft 444 kts 281°
2026-05-07 08:27 42.37727 -13.08955 35979 ft 444 kts 281°
2026-05-07 08:27 42.38868 -13.17183 35978 ft 445 kts 281°
2026-05-07 08:28 42.40006 -13.25432 35980 ft 446 kts 281°
2026-05-07 08:28 42.41130 -13.33636 35973 ft 446 kts 281°
2026-05-07 08:29 42.42257 -13.41895 35982 ft 446 kts 280°
2026-05-07 08:29 42.43378 -13.50161 35986 ft 446 kts 280°
2026-05-07 08:30 42.44492 -13.58423 35978 ft 446 kts 280°
2026-05-07 08:30 42.45601 -13.66696 35970 ft 447 kts 280°
2026-05-07 08:31 42.46705 -13.74980 35987 ft 446 kts 280°
2026-05-07 08:31 42.47804 -13.83276 35975 ft 447 kts 279°
2026-05-07 08:32 42.48897 -13.91572 35971 ft 448 kts 279°
2026-05-07 08:32 42.49979 -13.99838 35970 ft 448 kts 278°
2026-05-07 08:33 42.50895 -14.08210 35985 ft 449 kts 278°
2026-05-07 08:33 42.51825 -14.16599 35977 ft 449 kts 278°
2026-05-07 08:34 42.52725 -14.24993 35982 ft 450 kts 278°
2026-05-07 08:34 42.53629 -14.33334 35990 ft 450 kts 278°
2026-05-07 08:35 42.54523 -14.41739 35985 ft 450 kts 277°
2026-05-07 08:35 42.55419 -14.50165 35982 ft 451 kts 277°
2026-05-07 08:36 42.56307 -14.58605 35994 ft 452 kts 277°
2026-05-07 08:36 42.57192 -14.67064 35982 ft 453 kts 277°
2026-05-07 08:37 42.58064 -14.75460 35994 ft 452 kts 277°
2026-05-07 08:37 42.58935 -14.83919 35985 ft 452 kts 277°
2026-05-07 08:38 42.59801 -14.92385 35984 ft 453 kts 277°
2026-05-07 08:38 42.60663 -15.00872 35982 ft 454 kts 277°
2026-05-07 08:39 42.61515 -15.09328 35978 ft 454 kts 277°
2026-05-07 08:39 42.62366 -15.17846 35983 ft 455 kts 276°
2026-05-07 08:40 42.63206 -15.26313 35970 ft 455 kts 276°
2026-05-07 08:40 42.64045 -15.34830 35980 ft 455 kts 276°
2026-05-07 08:41 42.64879 -15.43370 35980 ft 456 kts 276°
2026-05-07 08:41 42.65707 -15.51915 35991 ft 457 kts 276°
2026-05-07 08:42 42.66533 -15.60499 35984 ft 457 kts 276°
2026-05-07 08:42 42.67346 -15.69027 35972 ft 457 kts 276°
2026-05-07 08:43 42.68159 -15.77618 35975 ft 458 kts 276°
2026-05-07 08:43 42.68966 -15.86215 35977 ft 459 kts 276°
2026-05-07 08:44 42.69768 -15.94838 35996 ft 460 kts 275°
2026-05-07 08:44 42.70566 -16.03479 35978 ft 461 kts 275°
2026-05-07 08:45 42.71354 -16.12091 35973 ft 462 kts 275°
2026-05-07 08:45 42.72142 -16.20777 35974 ft 463 kts 275°
2026-05-07 08:46 42.72924 -16.29473 35972 ft 464 kts 275°
2026-05-07 08:46 42.73703 -16.38207 35971 ft 464 kts 275°
2026-05-07 08:47 42.74474 -16.46925 35967 ft 464 kts 275°
2026-05-07 08:47 42.75234 -16.55601 35968 ft 465 kts 275°
2026-05-07 08:48 42.75994 -16.64353 35963 ft 465 kts 275°
2026-05-07 08:48 42.76747 -16.73107 35966 ft 465 kts 275°
2026-05-07 08:49 42.77495 -16.81876 35965 ft 467 kts 274°
2026-05-07 08:49 42.78233 -16.90615 35968 ft 467 kts 274°
2026-05-07 08:50 42.78970 -16.99414 35964 ft 468 kts 274°
2026-05-07 08:50 42.79701 -17.08233 35960 ft 468 kts 274°
2026-05-07 08:51 42.80426 -17.17050 35961 ft 468 kts 274°
2026-05-07 08:51 42.81140 -17.25837 35957 ft 469 kts 274°
2026-05-07 08:52 42.81853 -17.34681 35953 ft 469 kts 274°
2026-05-07 08:52 42.82554 -17.43467 35949 ft 469 kts 274°
2026-05-07 08:53 42.83254 -17.52333 35952 ft 469 kts 274°
2026-05-07 08:53 42.83947 -17.61185 35947 ft 470 kts 274°
2026-05-07 08:54 42.84633 -17.70051 35948 ft 470 kts 274°
2026-05-07 08:54 42.85312 -17.78915 35950 ft 470 kts 273°
2026-05-07 08:55 42.85986 -17.87798 35946 ft 471 kts 273°
2026-05-07 08:55 42.86653 -17.96691 35940 ft 472 kts 273°
2026-05-07 08:56 42.87314 -18.05590 35938 ft 472 kts 273°
2026-05-07 08:56 42.87966 -18.14455 35935 ft 472 kts 273°
2026-05-07 08:57 42.88614 -18.23375 35936 ft 472 kts 273°
2026-05-07 08:57 42.89252 -18.32246 35936 ft 472 kts 272°
2026-05-07 08:58 42.89784 -18.39720 35933 ft 473 kts 272°
2026-05-07 08:58 42.90410 -18.48610 35931 ft 473 kts 272°
2026-05-07 08:59 42.91033 -18.57555 35916 ft 473 kts 272°
2026-05-07 08:59 42.91645 -18.66449 35922 ft 473 kts 272°
2026-05-07 09:00 42.92255 -18.75410 35925 ft 474 kts 272°
2026-05-07 09:00 42.92859 -18.84378 35924 ft 474 kts 272°
2026-05-07 09:01 42.93455 -18.93347 35915 ft 474 kts 272°
2026-05-07 09:01 42.94043 -19.02302 35914 ft 474 kts 272°
2026-05-07 09:02 42.94625 -19.11268 35914 ft 475 kts 272°
2026-05-07 09:02 42.95202 -19.20260 35912 ft 475 kts 272°
2026-05-07 09:03 42.95769 -19.29214 35906 ft 475 kts 272°
2026-05-07 09:03 42.96332 -19.38227 35905 ft 476 kts 272°
2026-05-07 09:04 42.96888 -19.47230 35904 ft 476 kts 272°
2026-05-07 09:04 42.97435 -19.56206 35902 ft 477 kts 272°
2026-05-07 09:05 42.97979 -19.65256 35898 ft 478 kts 272°
2026-05-07 09:05 42.98517 -19.74323 35896 ft 479 kts 271°
2026-05-07 09:06 42.99049 -19.83415 35892 ft 480 kts 271°
2026-05-07 09:06 42.99572 -19.92462 35885 ft 480 kts 271°
2026-05-07 09:07 43.00057 -20.01551 35900 ft 479 kts 269°
2026-05-07 09:07 43.00463 -20.10659 35885 ft 480 kts 271°
2026-05-07 09:08 43.00849 -20.19780 35894 ft 480 kts 270°
2026-05-07 09:08 43.01223 -20.28905 35881 ft 480 kts 270°
2026-05-07 09:09 43.01600 -20.38024 35884 ft 481 kts 270°
2026-05-07 09:09 43.01959 -20.47146 35887 ft 480 kts 270°
2026-05-07 09:10 43.02317 -20.56209 35884 ft 480 kts 270°
2026-05-07 09:10 43.02664 -20.65326 35885 ft 481 kts 270°
2026-05-07 09:11 43.03008 -20.74468 35883 ft 481 kts 270°
2026-05-07 09:11 43.03343 -20.83614 35878 ft 482 kts 270°
2026-05-07 09:12 43.03672 -20.92742 35880 ft 483 kts 270°
2026-05-07 09:12 43.03993 -21.01911 35879 ft 482 kts 270°
2026-05-07 09:13 43.04308 -21.11082 35881 ft 482 kts 270°
2026-05-07 09:13 43.04615 -21.20245 35878 ft 481 kts 270°
2026-05-07 09:14 43.04912 -21.29324 35878 ft 481 kts 270°
2026-05-07 09:14 43.05204 -21.38460 35870 ft 481 kts 270°
2026-05-07 09:15 43.05489 -21.47619 35871 ft 481 kts 270°
2026-05-07 09:15 43.05766 -21.56773 35865 ft 482 kts 270°
2026-05-07 09:16 43.06037 -21.65953 35868 ft 483 kts 270°
2026-05-07 09:16 43.06300 -21.75083 35866 ft 483 kts 270°
2026-05-07 09:17 43.06556 -21.84271 35862 ft 483 kts 270°
2026-05-07 09:17 43.06805 -21.93457 35859 ft 483 kts 270°
2026-05-07 09:18 43.07047 -22.02648 35855 ft 483 kts 270°
2026-05-07 09:18 43.07280 -22.11759 35852 ft 482 kts 270°
2026-05-07 09:19 43.07506 -22.20922 35856 ft 481 kts 270°
2026-05-07 09:19 43.07725 -22.30076 35855 ft 481 kts 269°
2026-05-07 09:20 43.07937 -22.39236 35852 ft 482 kts 269°
2026-05-07 09:20 43.08141 -22.48404 35848 ft 482 kts 269°
2026-05-07 09:21 43.08337 -22.57516 35850 ft 482 kts 269°
2026-05-07 09:21 43.08528 -22.66711 35845 ft 483 kts 269°
2026-05-07 09:22 43.08711 -22.75904 35841 ft 483 kts 269°
2026-05-07 09:22 43.08887 -22.85089 35841 ft 483 kts 269°
2026-05-07 09:23 43.09054 -22.94237 35837 ft 483 kts 269°
2026-05-07 09:23 43.09216 -23.03441 35838 ft 484 kts 269°
2026-05-07 09:24 43.09370 -23.12661 35832 ft 484 kts 269°
2026-05-07 09:24 43.09517 -23.21877 35834 ft 485 kts 269°
2026-05-07 09:25 43.09656 -23.31122 35830 ft 485 kts 269°
2026-05-07 09:25 43.09788 -23.40352 35830 ft 484 kts 269°
2026-05-07 09:26 43.09912 -23.49523 35821 ft 484 kts 269°
2026-05-07 09:26 43.10029 -23.58726 35819 ft 484 kts 269°
2026-05-07 09:27 43.10139 -23.67958 35831 ft 485 kts 269°
2026-05-07 09:28 43.10290 -23.81834 35825 ft 485 kts 269°
2026-05-07 09:28 43.10381 -23.91007 35821 ft 484 kts 269°
2026-05-07 09:29 43.10464 -24.00223 35828 ft 483 kts 269°
2026-05-07 09:29 43.10540 -24.09418 35829 ft 483 kts 269°
2026-05-07 09:30 43.10610 -24.18600 35828 ft 482 kts 269°
2026-05-07 09:30 43.10671 -24.27765 35829 ft 481 kts 269°
2026-05-07 09:31 43.10725 -24.36926 35831 ft 481 kts 269°
2026-05-07 09:31 43.10771 -24.46035 35832 ft 481 kts 269°
2026-05-07 09:32 43.10810 -24.55203 35835 ft 482 kts 269°
2026-05-07 09:32 43.10843 -24.64379 35836 ft 481 kts 270°
2026-05-07 09:33 43.10867 -24.73537 35837 ft 480 kts 270°
2026-05-07 09:33 43.10885 -24.82627 35837 ft 480 kts 270°
2026-05-07 09:34 43.10895 -24.91775 35839 ft 481 kts 270°
2026-05-07 09:34 43.10898 -25.00951 35839 ft 481 kts 270°
2026-05-07 09:35 43.10894 -25.10118 35841 ft 481 kts 270°
2026-05-07 09:35 43.10882 -25.19274 35845 ft 481 kts 270°
2026-05-07 09:36 43.10863 -25.28391 35845 ft 480 kts 270°
2026-05-07 09:36 43.10836 -25.37532 35847 ft 480 kts 270°
2026-05-07 09:37 43.10803 -25.46667 35850 ft 480 kts 270°
2026-05-07 09:37 43.10762 -25.55806 35849 ft 480 kts 270°
2026-05-07 09:38 43.10715 -25.64879 35854 ft 480 kts 270°
2026-05-07 09:38 43.10659 -25.74032 35855 ft 480 kts 270°
2026-05-07 09:39 43.10597 -25.83167 35859 ft 480 kts 270°
2026-05-07 09:39 43.10527 -25.92313 35863 ft 480 kts 270°
2026-05-07 09:40 43.10450 -26.01453 35864 ft 480 kts 270°
2026-05-07 09:40 43.10366 -26.10544 35867 ft 480 kts 270°
2026-05-07 09:41 43.10274 -26.19702 35865 ft 481 kts 270°
2026-05-07 09:41 43.10175 -26.28868 35867 ft 482 kts 270°
2026-05-07 09:42 43.10068 -26.38040 35873 ft 482 kts 270°
2026-05-07 09:42 43.09954 -26.47216 35876 ft 482 kts 270°
2026-05-07 09:43 43.09833 -26.56390 35875 ft 482 kts 270°
2026-05-07 09:43 43.09704 -26.65550 35880 ft 482 kts 270°
2026-05-07 09:44 43.09568 -26.74731 35881 ft 482 kts 270°
2026-05-07 09:44 43.09426 -26.83841 35885 ft 482 kts 270°
2026-05-07 09:45 43.09276 -26.93020 35885 ft 482 kts 270°
2026-05-07 09:45 43.09145 -27.00644 35884 ft 481 kts 271°
2026-05-07 09:46 43.08981 -27.09817 35885 ft 481 kts 271°
2026-05-07 09:46 43.08811 -27.18916 35888 ft 481 kts 271°
2026-05-07 09:47 43.08633 -27.28073 35888 ft 481 kts 271°
2026-05-07 09:47 43.08447 -27.37231 35890 ft 481 kts 271°
2026-05-07 09:48 43.08254 -27.46392 35893 ft 481 kts 271°
2026-05-07 09:48 43.08055 -27.55479 35892 ft 481 kts 271°
2026-05-07 09:49 43.07848 -27.64621 35894 ft 480 kts 271°
2026-05-07 09:49 43.07634 -27.73759 35897 ft 479 kts 271°
2026-05-07 09:50 43.07414 -27.82805 35900 ft 479 kts 271°
2026-05-07 09:50 43.07186 -27.91914 35901 ft 478 kts 271°
2026-05-07 09:51 43.06952 -28.00999 35905 ft 479 kts 271°
2026-05-07 09:51 43.06709 -28.10113 35909 ft 478 kts 271°
2026-05-07 09:52 43.06461 -28.19165 35909 ft 479 kts 271°
2026-05-07 09:52 43.06204 -28.28271 35913 ft 479 kts 271°
2026-05-07 09:53 43.05939 -28.37380 35915 ft 478 kts 271°
2026-05-07 09:53 43.05668 -28.46482 35923 ft 479 kts 271°
2026-05-07 09:54 43.05391 -28.55539 35926 ft 479 kts 271°
2026-05-07 09:54 43.05105 -28.64648 35931 ft 478 kts 271°
2026-05-07 09:55 43.04813 -28.73723 35931 ft 478 kts 271°
2026-05-07 09:55 43.04513 -28.82814 35934 ft 478 kts 271°
2026-05-07 09:56 43.04208 -28.91845 35938 ft 478 kts 271°
2026-05-07 09:56 43.03894 -29.00921 35940 ft 477 kts 271°
2026-05-07 09:57 43.03574 -29.09982 35946 ft 477 kts 271°
2026-05-07 09:57 43.03246 -29.19047 35946 ft 477 kts 271°
2026-05-07 09:58 43.02912 -29.28101 35946 ft 476 kts 271°
2026-05-07 09:58 43.02574 -29.37053 35956 ft 475 kts 271°
2026-05-07 09:59 43.02226 -29.46073 35956 ft 474 kts 271°
2026-05-07 09:59 43.01873 -29.55077 35968 ft 474 kts 271°
2026-05-07 10:00 43.01512 -29.64075 35970 ft 474 kts 271°
2026-05-07 10:00 43.01143 -29.73083 35965 ft 474 kts 271°
2026-05-07 10:01 43.00769 -29.82068 35976 ft 472 kts 271°
2026-05-07 10:01 43.00390 -29.91016 35984 ft 474 kts 271°
2026-05-07 10:02 43.00000 -30.00004 35980 ft 473 kts 271°
2026-05-07 10:02 42.99507 -30.08952 35982 ft 472 kts 270°
2026-05-07 10:03 42.98992 -30.17891 35980 ft 470 kts 271°
2026-05-07 10:03 42.98496 -30.26739 35988 ft 470 kts 270°
2026-05-07 10:04 42.97971 -30.35637 35983 ft 468 kts 271°
2026-05-07 10:04 42.97455 -30.44503 35997 ft 467 kts 271°
2026-05-07 10:05 42.96928 -30.53292 35997 ft 464 kts 271°
2026-05-07 10:05 42.96401 -30.62067 35999 ft 462 kts 271°
2026-05-07 10:06 42.95866 -30.70807 36005 ft 461 kts 271°
2026-05-07 10:06 42.95326 -30.79524 36008 ft 460 kts 271°
2026-05-07 10:07 42.94782 -30.88205 36018 ft 458 kts 271°
2026-05-07 10:07 42.94233 -30.96863 36013 ft 457 kts 271°
2026-05-07 10:08 42.93681 -31.05459 36019 ft 456 kts 271°
2026-05-07 10:08 42.93120 -31.14096 36022 ft 455 kts 271°
2026-05-07 10:09 42.92555 -31.22703 36030 ft 454 kts 271°
2026-05-07 10:09 42.91988 -31.31228 36028 ft 453 kts 271°
2026-05-07 10:10 42.91413 -31.39785 36035 ft 452 kts 271°
2026-05-07 10:10 42.90836 -31.48263 36034 ft 450 kts 271°
2026-05-07 10:11 42.90252 -31.56771 36043 ft 450 kts 271°
2026-05-07 10:11 42.89661 -31.65264 36031 ft 449 kts 271°
2026-05-07 10:12 42.89065 -31.73753 36038 ft 448 kts 271°
2026-05-07 10:12 42.88468 -31.82155 36049 ft 447 kts 271°
2026-05-07 10:13 42.87864 -31.90587 36053 ft 446 kts 271°
2026-05-07 10:13 42.87253 -31.98996 36056 ft 445 kts 271°
2026-05-07 10:14 42.86642 -32.07350 36062 ft 444 kts 271°
2026-05-07 10:14 42.86022 -32.15730 36060 ft 444 kts 271°
2026-05-07 10:15 42.85397 -32.24099 36072 ft 444 kts 270°
2026-05-07 10:15 42.84766 -32.32455 36067 ft 443 kts 270°
2026-05-07 10:16 42.84129 -32.40819 36075 ft 443 kts 270°
2026-05-07 10:16 42.83486 -32.49175 36073 ft 443 kts 270°
2026-05-07 10:17 42.82838 -32.57523 36087 ft 443 kts 270°
2026-05-07 10:17 42.82187 -32.65811 36079 ft 442 kts 270°
2026-05-07 10:18 42.81527 -32.74152 36089 ft 442 kts 270°
2026-05-07 10:18 42.80862 -32.82476 36084 ft 442 kts 270°
2026-05-07 10:19 42.80190 -32.90803 36095 ft 441 kts 269°
2026-05-07 10:19 42.79514 -32.99108 36092 ft 440 kts 269°
2026-05-07 10:20 42.78839 -33.07338 36092 ft 440 kts 269°
2026-05-07 10:20 42.78153 -33.15604 36094 ft 439 kts 269°
2026-05-07 10:21 42.77464 -33.23852 36104 ft 438 kts 269°
2026-05-07 10:21 42.76769 -33.32093 36105 ft 438 kts 269°
2026-05-07 10:22 42.76073 -33.40279 36110 ft 437 kts 269°
2026-05-07 10:22 42.75366 -33.48506 36109 ft 436 kts 269°
2026-05-07 10:23 42.74657 -33.56705 36113 ft 436 kts 268°
2026-05-07 10:23 42.73943 -33.64884 36109 ft 435 kts 268°
2026-05-07 10:24 42.73224 -33.73057 36116 ft 434 kts 268°
2026-05-07 10:24 42.72506 -33.81146 36120 ft 433 kts 268°
2026-05-07 10:25 42.71779 -33.89274 36124 ft 432 kts 268°
2026-05-07 10:25 42.71047 -33.97390 36128 ft 432 kts 268°
2026-05-07 10:26 42.70310 -34.05494 36134 ft 431 kts 268°
2026-05-07 10:26 42.69572 -34.13548 36135 ft 431 kts 268°
2026-05-07 10:27 42.68827 -34.21618 36137 ft 430 kts 268°
2026-05-07 10:27 42.68075 -34.29691 36141 ft 430 kts 268°
2026-05-07 10:28 42.67317 -34.37772 36151 ft 430 kts 267°
2026-05-07 10:28 42.66560 -34.45784 36139 ft 430 kts 267°
2026-05-07 10:29 42.65791 -34.53857 36156 ft 430 kts 267°
2026-05-07 10:29 42.65016 -34.61927 36152 ft 431 kts 267°
2026-05-07 10:30 42.63841 -34.74052 36151 ft 432 kts 267°
2026-05-07 10:30 42.63050 -34.82141 36157 ft 432 kts 267°
2026-05-07 10:31 42.62252 -34.90242 36158 ft 432 kts 266°
2026-05-07 10:31 42.61452 -34.98299 36164 ft 432 kts 266°
2026-05-07 10:32 42.60643 -35.06391 36166 ft 432 kts 266°
2026-05-07 10:32 42.59829 -35.14477 36168 ft 432 kts 266°
2026-05-07 10:33 42.59013 -35.22516 36172 ft 433 kts 266°
2026-05-07 10:33 42.58185 -35.30628 36178 ft 433 kts 266°
2026-05-07 10:34 42.57491 -35.37372 36180 ft 433 kts 266°
2026-05-07 10:34 42.56517 -35.46771 36185 ft 432 kts 265°
2026-05-07 10:35 42.55811 -35.53549 36186 ft 432 kts 265°
2026-05-07 10:35 42.54968 -35.61579 36191 ft 432 kts 265°
2026-05-07 10:36 42.54115 -35.69644 36189 ft 432 kts 265°
2026-05-07 10:36 42.53258 -35.77696 36199 ft 430 kts 265°
2026-05-07 10:37 42.52397 -35.85734 36196 ft 431 kts 265°
2026-05-07 10:37 42.51528 -35.93785 36199 ft 431 kts 265°
2026-05-07 10:38 42.50654 -36.01833 36204 ft 431 kts 265°
2026-05-07 10:38 42.49780 -36.09827 36208 ft 431 kts 265°
2026-05-07 10:39 42.48893 -36.17885 36207 ft 431 kts 264°
2026-05-07 10:39 42.48007 -36.25884 36218 ft 432 kts 264°
2026-05-07 10:40 42.47108 -36.33946 36219 ft 433 kts 264°
2026-05-07 10:40 42.46201 -36.42019 36222 ft 433 kts 264°
2026-05-07 10:41 42.45296 -36.50025 36225 ft 433 kts 264°
2026-05-07 10:41 42.44378 -36.58100 36231 ft 434 kts 264°
2026-05-07 10:42 42.43451 -36.66200 36231 ft 434 kts 264°
2026-05-07 10:42 42.42524 -36.74242 36237 ft 435 kts 264°
2026-05-07 10:43 42.41587 -36.82323 36240 ft 434 kts 264°
2026-05-07 10:43 42.40645 -36.90403 36240 ft 434 kts 264°
2026-05-07 10:44 42.39700 -36.98453 36250 ft 435 kts 263°
2026-05-07 10:44 42.38742 -37.06553 36250 ft 436 kts 263°
2026-05-07 10:45 42.37780 -37.14651 36250 ft 435 kts 263°
2026-05-07 10:45 42.36817 -37.22699 36259 ft 435 kts 263°
2026-05-07 10:46 42.35844 -37.30784 36257 ft 435 kts 263°
2026-05-07 10:46 42.34867 -37.38851 36260 ft 435 kts 263°
2026-05-07 10:47 42.33880 -37.46939 36273 ft 437 kts 266°
2026-05-07 10:47 42.32882 -37.55108 36266 ft 442 kts 266°
2026-05-07 10:48 42.31867 -37.63304 36269 ft 442 kts 266°
2026-05-07 10:48 42.30854 -37.71489 36269 ft 441 kts 266°
2026-05-07 10:49 42.29839 -37.79604 36274 ft 439 kts 266°
2026-05-07 10:49 42.28817 -37.87748 36279 ft 438 kts 266°
2026-05-07 10:50 42.27793 -37.95855 36287 ft 438 kts 266°
2026-05-07 10:50 42.26768 -38.03923 36290 ft 437 kts 266°
2026-05-07 10:51 42.25734 -38.12008 36281 ft 437 kts 266°
2026-05-07 10:51 42.24696 -38.20088 36287 ft 436 kts 266°
2026-05-07 10:52 42.23654 -38.28140 36290 ft 435 kts 266°
2026-05-07 10:52 42.22608 -38.36185 36297 ft 434 kts 266°
2026-05-07 10:53 42.21562 -38.44188 36298 ft 433 kts 266°
2026-05-07 10:53 42.20510 -38.52187 36298 ft 433 kts 266°
2026-05-07 10:54 42.19450 -38.60194 36301 ft 432 kts 266°
2026-05-07 10:54 42.18396 -38.68125 36305 ft 432 kts 266°
2026-05-07 10:55 42.17328 -38.76106 36313 ft 432 kts 266°
2026-05-07 10:55 42.16255 -38.84085 36313 ft 432 kts 266°
2026-05-07 10:56 42.15180 -38.92035 36314 ft 431 kts 266°
2026-05-07 10:56 42.14102 -38.99962 36317 ft 429 kts 266°
2026-05-07 10:57 42.13028 -39.07828 36314 ft 429 kts 266°
2026-05-07 10:57 42.11941 -39.15731 36324 ft 429 kts 266°
2026-05-07 10:58 42.10849 -39.23640 36325 ft 428 kts 266°
2026-05-07 10:58 42.09755 -39.31519 36325 ft 428 kts 266°
2026-05-07 10:59 42.08656 -39.39390 36331 ft 428 kts 266°
2026-05-07 10:59 42.07557 -39.47214 36330 ft 427 kts 266°
2026-05-07 11:00 42.06450 -39.55063 36331 ft 427 kts 266°
2026-05-07 11:00 42.05336 -39.62926 36344 ft 427 kts 266°
2026-05-07 11:01 42.04214 -39.70791 36342 ft 428 kts 265°
2026-05-07 11:01 42.03095 -39.78603 36342 ft 427 kts 265°
2026-05-07 11:02 42.01964 -39.86460 36346 ft 427 kts 265°
2026-05-07 11:02 42.00830 -39.94294 36353 ft 427 kts 265°
2026-05-07 11:03 41.99685 -40.02154 36348 ft 429 kts 265°
2026-05-07 11:03 41.98475 -40.10009 36353 ft 429 kts 265°
2026-05-07 11:04 41.97284 -40.17846 36355 ft 428 kts 265°
2026-05-07 11:04 41.96084 -40.25658 36358 ft 430 kts 264°
2026-05-07 11:05 41.94867 -40.33541 36364 ft 430 kts 264°
2026-05-07 11:05 41.93648 -40.41409 36366 ft 430 kts 264°
2026-05-07 11:06 41.92422 -40.49279 36362 ft 430 kts 264°
2026-05-07 11:06 41.91191 -40.57148 36368 ft 431 kts 264°
2026-05-07 11:07 41.89952 -40.65029 36373 ft 432 kts 264°
2026-05-07 11:07 41.88706 -40.72912 36365 ft 432 kts 264°
2026-05-07 11:08 41.87454 -40.80802 36370 ft 432 kts 264°
2026-05-07 11:08 41.86201 -40.88661 36383 ft 432 kts 264°
2026-05-07 11:09 41.84938 -40.96541 36379 ft 432 kts 264°
2026-05-07 11:09 41.83671 -41.04418 36382 ft 432 kts 263°
2026-05-07 11:10 41.82396 -41.12303 36381 ft 432 kts 263°
2026-05-07 11:10 41.81117 -41.20177 36387 ft 432 kts 263°
2026-05-07 11:11 41.79838 -41.28009 36387 ft 433 kts 263°
2026-05-07 11:11 41.78546 -41.35893 36388 ft 433 kts 263°
2026-05-07 11:12 41.77245 -41.43790 36390 ft 434 kts 263°
2026-05-07 11:12 41.75940 -41.51683 36389 ft 434 kts 263°
2026-05-07 11:13 41.74626 -41.59586 36392 ft 434 kts 263°
2026-05-07 11:13 41.73309 -41.67474 36393 ft 434 kts 263°
2026-05-07 11:14 41.71994 -41.75316 36395 ft 435 kts 263°
2026-05-07 11:14 41.70662 -41.83226 36394 ft 436 kts 263°
2026-05-07 11:15 41.69320 -41.91154 36396 ft 436 kts 262°
2026-05-07 11:15 41.67983 -41.99021 36402 ft 436 kts 262°
2026-05-07 11:16 41.66631 -42.06943 36400 ft 437 kts 262°
2026-05-07 11:16 41.65272 -42.14863 36400 ft 436 kts 262°
2026-05-07 11:17 41.63907 -42.22791 36404 ft 436 kts 262°
2026-05-07 11:17 41.62546 -42.30659 36404 ft 437 kts 262°
2026-05-07 11:18 41.61170 -42.38579 36405 ft 437 kts 262°
2026-05-07 11:18 41.59789 -42.46492 36406 ft 436 kts 262°
2026-05-07 11:19 41.58413 -42.54341 36410 ft 437 kts 262°
2026-05-07 11:19 41.57022 -42.62246 36408 ft 437 kts 262°
2026-05-07 11:20 41.55622 -42.70160 36406 ft 437 kts 262°
2026-05-07 11:20 41.54221 -42.78052 36406 ft 436 kts 261°
2026-05-07 11:21 41.52823 -42.85893 36409 ft 437 kts 261°
2026-05-07 11:21 41.51408 -42.93797 36405 ft 438 kts 261°
2026-05-07 11:22 41.49986 -43.01701 36405 ft 437 kts 261°
2026-05-07 11:22 41.48562 -43.09590 36406 ft 437 kts 261°
2026-05-07 11:23 41.47133 -43.17468 36407 ft 437 kts 261°
2026-05-07 11:23 41.45708 -43.25293 36406 ft 437 kts 261°
2026-05-07 11:24 41.44265 -43.33180 36409 ft 437 kts 261°
2026-05-07 11:24 41.42819 -43.41055 36411 ft 437 kts 261°
2026-05-07 11:25 41.41612 -43.47605 36410 ft 438 kts 261°
2026-05-07 11:25 41.39912 -43.56789 36406 ft 439 kts 260°
2026-05-07 11:26 41.38681 -43.63410 36408 ft 439 kts 260°
2026-05-07 11:26 41.37218 -43.71251 36408 ft 439 kts 260°
2026-05-07 11:27 41.35738 -43.79150 36410 ft 440 kts 260°
2026-05-07 11:27 41.34249 -43.87067 36415 ft 440 kts 260°
2026-05-07 11:28 41.32767 -43.94911 36413 ft 439 kts 260°
2026-05-07 11:28 41.31272 -44.02797 36414 ft 440 kts 260°
2026-05-07 11:29 41.29770 -44.10686 36400 ft 440 kts 259°
2026-05-07 11:29 41.28261 -44.18578 36399 ft 440 kts 259°
2026-05-07 11:30 41.26747 -44.26464 36400 ft 440 kts 259°
2026-05-07 11:30 41.25227 -44.34351 36415 ft 440 kts 259°
2026-05-07 11:31 41.23711 -44.42183 36406 ft 440 kts 259°
2026-05-07 11:31 41.22183 -44.50052 36408 ft 440 kts 259°
2026-05-07 11:32 41.19874 -44.61876 36412 ft 440 kts 259°
2026-05-07 11:33 41.18339 -44.69702 36407 ft 440 kts 259°
2026-05-07 11:33 41.16787 -44.77580 36406 ft 440 kts 259°
2026-05-07 11:34 41.15233 -44.85436 36402 ft 440 kts 259°
2026-05-07 11:34 41.13674 -44.93293 36401 ft 440 kts 258°
2026-05-07 11:35 41.12108 -45.01151 36403 ft 440 kts 258°
2026-05-07 11:35 41.10548 -45.08947 36403 ft 440 kts 258°
2026-05-07 11:36 41.08969 -45.16809 36400 ft 441 kts 258°
2026-05-07 11:36 41.07386 -45.24659 36402 ft 440 kts 258°
2026-05-07 11:37 41.05798 -45.32507 36403 ft 441 kts 258°
2026-05-07 11:37 41.04202 -45.40362 36403 ft 441 kts 258°
2026-05-07 11:38 41.02610 -45.48167 36407 ft 442 kts 258°
2026-05-07 11:38 41.01000 -45.56033 36398 ft 443 kts 257°
2026-05-07 11:39 40.99382 -45.63906 36399 ft 443 kts 257°
2026-05-07 11:39 40.97757 -45.71781 36394 ft 443 kts 257°
2026-05-07 11:40 40.96128 -45.79650 36393 ft 443 kts 257°
2026-05-07 11:40 40.94506 -45.87454 36392 ft 443 kts 257°
2026-05-07 11:41 40.92867 -45.95307 36391 ft 442 kts 257°
2026-05-07 11:41 40.91225 -46.03152 36390 ft 443 kts 257°
2026-05-07 11:42 40.89582 -46.10965 36389 ft 443 kts 257°
2026-05-07 11:42 40.87928 -46.18808 36385 ft 443 kts 257°
2026-05-07 11:43 40.86268 -46.26646 36385 ft 443 kts 256°
2026-05-07 11:43 40.84604 -46.34477 36381 ft 443 kts 256°
2026-05-07 11:44 40.82932 -46.42313 36382 ft 443 kts 256°
2026-05-07 11:44 40.81263 -46.50108 36380 ft 443 kts 256°
2026-05-07 11:45 40.79575 -46.57966 36380 ft 443 kts 256°
2026-05-07 11:45 40.77887 -46.65790 36381 ft 443 kts 256°
2026-05-07 11:46 40.76203 -46.73569 36376 ft 444 kts 256°
2026-05-07 11:46 40.74500 -46.81409 36377 ft 444 kts 256°
2026-05-07 11:47 40.72790 -46.89254 36377 ft 445 kts 256°
2026-05-07 11:47 40.71076 -46.97086 36373 ft 445 kts 256°
2026-05-07 11:48 40.69356 -47.04919 36374 ft 444 kts 255°
2026-05-07 11:48 40.67642 -47.12697 36367 ft 444 kts 255°
2026-05-07 11:49 40.65914 -47.20510 36362 ft 444 kts 255°
2026-05-07 11:49 40.64179 -47.28324 36360 ft 445 kts 255°
2026-05-07 11:50 40.62434 -47.36160 36359 ft 445 kts 255°
2026-05-07 11:50 40.60687 -47.43976 36361 ft 445 kts 255°
2026-05-07 11:51 40.58945 -47.51736 36354 ft 445 kts 255°
2026-05-07 11:51 40.57187 -47.59549 36358 ft 445 kts 255°
2026-05-07 11:52 40.55425 -47.67348 36351 ft 445 kts 255°
2026-05-07 11:52 40.53655 -47.75153 36350 ft 445 kts 254°
2026-05-07 11:53 40.51888 -47.82921 36346 ft 446 kts 254°
2026-05-07 11:53 40.50102 -47.90744 36346 ft 446 kts 254°
2026-05-07 11:54 40.48310 -47.98568 36341 ft 447 kts 254°
2026-05-07 11:54 40.46511 -48.06393 36341 ft 447 kts 254°
2026-05-07 11:55 40.44709 -48.14203 36340 ft 447 kts 254°
2026-05-07 11:55 40.42909 -48.21977 36338 ft 448 kts 253°
2026-05-07 11:56 40.41089 -48.29814 36328 ft 449 kts 253°
2026-05-07 11:56 40.39264 -48.37647 36328 ft 448 kts 253°
2026-05-07 11:57 40.37431 -48.45480 36324 ft 449 kts 253°
2026-05-07 11:57 40.35593 -48.53315 36318 ft 449 kts 253°
2026-05-07 11:58 40.33759 -48.61103 36315 ft 449 kts 253°
2026-05-07 11:58 40.31909 -48.68931 36309 ft 450 kts 253°
2026-05-07 11:59 40.30054 -48.76753 36307 ft 450 kts 253°
2026-05-07 11:59 40.28191 -48.84585 36306 ft 450 kts 253°
2026-05-07 12:00 40.26330 -48.92382 36302 ft 451 kts 253°
2026-05-07 12:00 40.24449 -49.00237 36297 ft 452 kts 253°
2026-05-07 12:01 40.22557 -49.08111 36297 ft 452 kts 252°
2026-05-07 12:01 40.20677 -49.15907 36294 ft 452 kts 252°
2026-05-07 12:02 40.18776 -49.23764 36292 ft 452 kts 252°
2026-05-07 12:02 40.16870 -49.31617 36289 ft 454 kts 252°
2026-05-07 12:03 40.14952 -49.39491 36288 ft 453 kts 252°
2026-05-07 12:03 40.13043 -49.47304 36284 ft 453 kts 252°
2026-05-07 12:04 40.11114 -49.55170 36283 ft 454 kts 252°
2026-05-07 12:04 40.09181 -49.63031 36281 ft 455 kts 252°
2026-05-07 12:05 40.07250 -49.70851 36271 ft 454 kts 252°
2026-05-07 12:05 40.05309 -49.78693 36263 ft 454 kts 252°
2026-05-07 12:06 40.03362 -49.86529 36263 ft 453 kts 252°
2026-05-07 12:06 40.01406 -49.94373 36264 ft 455 kts 252°
2026-05-07 12:07 39.99266 -50.02181 36270 ft 458 kts 246°
2026-05-07 12:07 39.96705 -50.09747 36259 ft 458 kts 246°
2026-05-07 12:08 39.94139 -50.17328 36242 ft 455 kts 246°
2026-05-07 12:08 39.91577 -50.24860 36238 ft 454 kts 246°
2026-05-07 12:09 39.89008 -50.32404 36235 ft 455 kts 246°
2026-05-07 12:09 39.86442 -50.39914 36240 ft 457 kts 246°
2026-05-07 12:10 39.83855 -50.47469 36234 ft 456 kts 246°
2026-05-07 12:10 39.81269 -50.54995 36228 ft 455 kts 246°
2026-05-07 12:11 39.78703 -50.62450 36223 ft 454 kts 246°
2026-05-07 12:11 39.76118 -50.69936 36214 ft 454 kts 246°
2026-05-07 12:12 39.73520 -50.77444 36216 ft 454 kts 246°
2026-05-07 12:12 39.70923 -50.84925 36212 ft 454 kts 246°
2026-05-07 12:13 39.68330 -50.92379 36205 ft 455 kts 246°
2026-05-07 12:13 39.65711 -50.99885 36199 ft 456 kts 246°
2026-05-07 12:14 39.63089 -51.07384 36199 ft 457 kts 246°
2026-05-07 12:14 39.60455 -51.14894 36200 ft 458 kts 246°
2026-05-07 12:15 39.57810 -51.22418 36193 ft 459 kts 246°
2026-05-07 12:15 39.55172 -51.29902 36193 ft 459 kts 246°
2026-05-07 12:16 39.52959 -51.36166 36187 ft 460 kts 246°
2026-05-07 12:16 39.50283 -51.43720 36183 ft 460 kts 245°
2026-05-07 12:17 39.47616 -51.51233 36178 ft 461 kts 245°
2026-05-07 12:17 39.44922 -51.58800 36174 ft 462 kts 245°
2026-05-07 12:18 39.42226 -51.66353 36178 ft 462 kts 245°
2026-05-07 12:18 39.39540 -51.73859 36174 ft 463 kts 245°
2026-05-07 12:19 39.36830 -51.81415 36169 ft 463 kts 245°
2026-05-07 12:19 39.34116 -51.88959 36164 ft 463 kts 245°
2026-05-07 12:20 39.31390 -51.96517 36157 ft 463 kts 245°
2026-05-07 12:20 39.28678 -52.04019 36157 ft 463 kts 245°
2026-05-07 12:21 39.25944 -52.11561 36151 ft 463 kts 245°
2026-05-07 12:21 39.23219 -52.19061 36151 ft 464 kts 245°
2026-05-07 12:22 39.20475 -52.26592 36142 ft 464 kts 245°
2026-05-07 12:22 39.17727 -52.34116 36143 ft 464 kts 245°
2026-05-07 12:23 39.14970 -52.41647 36141 ft 464 kts 245°
2026-05-07 12:23 39.12213 -52.49155 36137 ft 464 kts 245°
2026-05-07 12:24 39.09466 -52.56619 36138 ft 464 kts 245°
2026-05-07 12:24 39.06699 -52.64118 36121 ft 463 kts 245°
2026-05-07 12:25 39.03934 -52.71593 36122 ft 462 kts 245°
2026-05-07 12:25 39.01168 -52.79053 36117 ft 461 kts 245°
2026-05-07 12:26 38.98404 -52.86487 36116 ft 461 kts 245°
2026-05-07 12:26 38.95637 -52.93915 36107 ft 460 kts 245°
2026-05-07 12:27 38.92864 -53.01337 36106 ft 460 kts 245°
2026-05-07 12:27 38.90086 -53.08754 36103 ft 461 kts 245°
2026-05-07 12:28 38.87304 -53.16163 36102 ft 460 kts 245°
2026-05-07 12:28 38.84539 -53.23510 36096 ft 460 kts 245°
2026-05-07 12:29 38.81746 -53.30913 36092 ft 460 kts 245°
2026-05-07 12:29 38.78948 -53.38312 36090 ft 461 kts 245°
2026-05-07 12:30 38.76141 -53.45716 36088 ft 462 kts 245°
2026-05-07 12:30 38.73346 -53.53068 36085 ft 462 kts 245°
2026-05-07 12:31 38.70517 -53.60496 36065 ft 463 kts 245°
2026-05-07 12:31 38.67680 -53.67922 36064 ft 465 kts 245°
2026-05-07 12:32 38.64829 -53.75370 36062 ft 466 kts 245°
2026-05-07 12:32 38.61967 -53.82825 36057 ft 467 kts 244°
2026-05-07 12:33 38.57665 -53.94001 36057 ft 469 kts 244°
2026-05-07 12:33 38.54772 -54.01491 36062 ft 470 kts 244°
2026-05-07 12:34 38.51869 -54.08991 36063 ft 471 kts 244°
2026-05-07 12:34 38.48976 -54.16446 36058 ft 472 kts 244°
2026-05-07 12:35 38.46052 -54.23961 36054 ft 472 kts 244°
2026-05-07 12:35 38.43120 -54.31479 36052 ft 473 kts 244°
2026-05-07 12:36 38.40201 -54.38949 36054 ft 474 kts 244°
2026-05-07 12:36 38.37244 -54.46491 36048 ft 475 kts 244°
2026-05-07 12:37 38.34279 -54.54040 36046 ft 476 kts 244°
2026-05-07 12:37 38.31329 -54.61531 36043 ft 476 kts 244°
2026-05-07 12:38 38.28347 -54.69086 36043 ft 478 kts 244°
2026-05-07 12:38 38.25350 -54.76659 36033 ft 479 kts 244°
2026-05-07 12:39 38.22361 -54.84193 36035 ft 480 kts 244°
2026-05-07 12:39 38.19341 -54.91788 36034 ft 481 kts 244°
2026-05-07 12:40 38.16313 -54.99383 36030 ft 482 kts 244°
2026-05-07 12:40 38.13263 -55.07017 36032 ft 484 kts 244°
2026-05-07 12:41 38.10226 -55.14597 36026 ft 485 kts 244°
2026-05-07 12:41 38.07151 -55.22253 36011 ft 487 kts 244°
2026-05-07 12:42 38.04060 -55.29932 36012 ft 489 kts 244°
2026-05-07 12:42 38.00953 -55.37632 36013 ft 491 kts 245°
2026-05-07 12:43 37.97829 -55.45352 36009 ft 492 kts 245°
2026-05-07 12:43 37.94716 -55.53029 36013 ft 493 kts 245°
2026-05-07 12:44 37.91572 -55.60760 36010 ft 493 kts 244°
2026-05-07 12:44 37.88418 -55.68500 36001 ft 494 kts 245°
2026-05-07 12:45 37.85264 -55.76221 36006 ft 494 kts 245°
2026-05-07 12:45 37.82119 -55.83899 36003 ft 495 kts 245°
2026-05-07 12:46 37.78941 -55.91640 36002 ft 495 kts 245°
2026-05-07 12:46 37.75755 -55.99381 36003 ft 496 kts 245°
2026-05-07 12:47 37.72564 -56.07115 35997 ft 496 kts 245°
2026-05-07 12:47 37.69385 -56.14802 36002 ft 497 kts 245°
2026-05-07 12:48 37.66166 -56.22565 36007 ft 498 kts 245°
2026-05-07 12:48 37.62940 -56.30327 36005 ft 500 kts 245°
2026-05-07 12:49 37.59706 -56.38088 36001 ft 500 kts 246°
2026-05-07 12:49 37.56492 -56.45786 35998 ft 498 kts 246°
2026-05-07 12:50 37.53257 -56.53511 35997 ft 497 kts 246°
2026-05-07 12:50 37.50018 -56.61230 35994 ft 498 kts 246°
2026-05-07 12:51 37.46779 -56.68928 35994 ft 497 kts 246°
2026-05-07 12:51 37.43533 -56.76628 35992 ft 497 kts 246°
2026-05-07 12:52 37.40306 -56.84261 35994 ft 497 kts 247°
2026-05-07 12:52 37.37053 -56.91938 35997 ft 497 kts 247°
2026-05-07 12:53 37.33793 -56.99614 36002 ft 497 kts 247°
2026-05-07 12:53 37.30546 -57.07241 36000 ft 497 kts 247°
2026-05-07 12:54 37.27274 -57.14906 35999 ft 497 kts 247°
2026-05-07 12:54 37.23998 -57.22565 36008 ft 497 kts 247°
2026-05-07 12:55 37.20718 -57.30216 36004 ft 498 kts 248°
2026-05-07 12:55 37.17427 -57.37870 35999 ft 498 kts 248°
2026-05-07 12:56 37.14137 -57.45508 36006 ft 499 kts 248°
2026-05-07 12:56 37.10856 -57.53105 36005 ft 498 kts 248°
2026-05-07 12:57 37.07545 -57.60755 36011 ft 499 kts 248°
2026-05-07 12:57 37.04224 -57.68409 36010 ft 501 kts 249°
2026-05-07 12:58 37.00880 -57.76099 36012 ft 503 kts 249°
2026-05-07 12:58 36.97531 -57.83779 36010 ft 502 kts 249°
2026-05-07 12:59 36.94188 -57.91431 36015 ft 501 kts 249°
2026-05-07 12:59 36.90837 -57.99083 36015 ft 502 kts 249°
2026-05-07 13:00 36.87495 -58.06695 36015 ft 502 kts 249°
2026-05-07 13:00 36.84127 -58.14349 36021 ft 502 kts 249°
2026-05-07 13:01 36.80756 -58.21992 36020 ft 503 kts 249°
2026-05-07 13:01 36.77371 -58.29649 36023 ft 503 kts 249°
2026-05-07 13:02 36.74007 -58.37240 36027 ft 502 kts 249°
2026-05-07 13:02 36.70624 -58.44856 36024 ft 501 kts 249°
2026-05-07 13:03 36.67244 -58.52447 36030 ft 500 kts 249°
2026-05-07 13:03 36.63865 -58.60021 36028 ft 500 kts 249°
2026-05-07 13:04 36.60505 -58.67536 36030 ft 500 kts 249°
2026-05-07 13:04 36.57109 -58.75111 36032 ft 500 kts 249°
2026-05-07 13:05 36.53711 -58.82675 36033 ft 499 kts 249°
2026-05-07 13:05 36.50319 -58.90207 36036 ft 499 kts 249°
2026-05-07 13:06 36.46920 -58.97739 36040 ft 500 kts 249°
2026-05-07 13:06 36.43534 -59.05224 36036 ft 501 kts 249°
2026-05-07 13:07 36.40119 -59.12756 36041 ft 501 kts 249°
2026-05-07 13:07 36.36697 -59.20287 36045 ft 500 kts 249°
2026-05-07 13:08 36.33830 -59.26583 36062 ft 500 kts 249°
2026-05-07 13:08 36.30420 -59.34057 36053 ft 500 kts 249°
2026-05-07 13:09 36.26985 -59.41568 36053 ft 500 kts 250°
2026-05-07 13:09 36.23545 -59.49074 36053 ft 500 kts 250°
2026-05-07 13:10 36.20109 -59.56554 36057 ft 499 kts 250°
2026-05-07 13:10 36.16687 -59.63988 36062 ft 499 kts 250°
2026-05-07 13:11 36.13238 -59.71461 36064 ft 499 kts 250°
2026-05-07 13:11 36.09795 -59.78907 36067 ft 498 kts 249°
2026-05-07 13:12 36.06369 -59.86300 36067 ft 498 kts 249°
2026-05-07 13:12 36.02917 -59.93731 36068 ft 497 kts 249°
2026-05-07 13:13 35.99240 -60.00991 36095 ft 507 kts 239°
2026-05-07 13:13 35.94533 -60.07553 36082 ft 510 kts 237°
2026-05-07 13:14 35.89800 -60.14078 36087 ft 510 kts 237°
2026-05-07 13:14 35.85098 -60.20551 36083 ft 510 kts 237°
2026-05-07 13:15 35.80356 -60.27061 36080 ft 510 kts 237°
2026-05-07 13:15 35.75609 -60.33570 36081 ft 509 kts 237°
2026-05-07 13:16 35.70875 -60.40046 36079 ft 509 kts 237°
2026-05-07 13:16 35.66137 -60.46518 36080 ft 509 kts 237°
2026-05-07 13:17 35.61390 -60.52988 36087 ft 509 kts 236°
2026-05-07 13:17 35.56668 -60.59410 36086 ft 509 kts 236°
2026-05-07 13:18 35.51924 -60.65852 36088 ft 508 kts 236°
2026-05-07 13:18 35.47179 -60.72282 36089 ft 507 kts 236°
2026-05-07 13:19 35.42437 -60.78697 36090 ft 507 kts 236°
2026-05-07 13:19 35.37722 -60.85061 36094 ft 506 kts 236°
2026-05-07 13:20 35.32978 -60.91454 36096 ft 506 kts 236°
2026-05-07 13:20 35.28262 -60.97798 36095 ft 506 kts 236°
2026-05-07 13:21 35.23520 -61.04164 36098 ft 506 kts 236°
2026-05-07 13:21 35.18766 -61.10534 36113 ft 506 kts 236°
2026-05-07 13:22 35.14040 -61.16856 36104 ft 506 kts 236°
2026-05-07 13:22 35.09282 -61.23207 36114 ft 506 kts 236°
2026-05-07 13:23 35.04528 -61.29542 36109 ft 506 kts 236°
2026-05-07 13:23 34.99767 -61.35875 36109 ft 506 kts 236°
2026-05-07 13:24 34.95025 -61.42171 36101 ft 507 kts 236°
2026-05-07 13:24 34.90247 -61.48501 36109 ft 507 kts 236°
2026-05-07 13:25 34.85465 -61.54827 36109 ft 507 kts 236°
2026-05-07 13:25 34.80675 -61.61151 36107 ft 508 kts 236°
2026-05-07 13:26 34.75883 -61.67465 36111 ft 507 kts 236°
2026-05-07 13:26 34.71096 -61.73762 36111 ft 507 kts 236°
2026-05-07 13:27 34.66327 -61.80023 36113 ft 507 kts 236°
2026-05-07 13:27 34.61521 -61.86323 36118 ft 508 kts 236°
2026-05-07 13:28 34.56739 -61.92578 36116 ft 508 kts 236°
2026-05-07 13:28 34.51928 -61.98860 36121 ft 507 kts 236°
2026-05-07 13:29 34.47114 -62.05135 36121 ft 508 kts 236°
2026-05-07 13:29 34.42299 -62.11400 36120 ft 507 kts 236°
2026-05-07 13:30 34.37890 -62.17889 36132 ft 500 kts 242°
2026-05-07 13:30 34.33659 -62.24582 36135 ft 500 kts 242°
2026-05-07 13:31 34.29430 -62.31269 36134 ft 500 kts 242°
2026-05-07 13:31 34.25194 -62.37954 36129 ft 500 kts 242°
2026-05-07 13:32 34.20977 -62.44594 36128 ft 500 kts 242°
2026-05-07 13:32 34.16736 -62.51262 36123 ft 500 kts 242°
2026-05-07 13:33 34.12497 -62.57914 36125 ft 500 kts 242°
2026-05-07 13:33 34.08252 -62.64562 36127 ft 499 kts 242°
2026-05-07 13:34 34.01919 -62.74461 36126 ft 499 kts 242°
2026-05-07 13:35 33.97668 -62.81086 36130 ft 500 kts 242°
2026-05-07 13:35 33.93403 -62.87725 36130 ft 500 kts 242°
2026-05-07 13:36 33.89160 -62.94314 36130 ft 500 kts 242°
2026-05-07 13:36 33.84901 -63.00919 36135 ft 499 kts 242°
2026-05-07 13:37 33.80633 -63.07526 36135 ft 500 kts 241°
2026-05-07 13:37 33.76356 -63.14130 36134 ft 500 kts 241°
2026-05-07 13:38 33.72074 -63.20735 36132 ft 500 kts 241°
2026-05-07 13:38 33.67821 -63.27282 36137 ft 500 kts 241°
2026-05-07 13:39 33.63536 -63.33867 36130 ft 500 kts 241°
2026-05-07 13:39 33.59245 -63.40447 36133 ft 500 kts 241°
2026-05-07 13:40 33.54948 -63.47026 36140 ft 501 kts 241°
2026-05-07 13:40 33.50665 -63.53572 36137 ft 501 kts 241°
2026-05-07 13:41 33.46361 -63.60137 36137 ft 501 kts 241°
2026-05-07 13:41 33.42034 -63.66725 36138 ft 501 kts 241°
2026-05-07 13:42 33.37751 -63.73235 36149 ft 500 kts 241°
2026-05-07 13:42 33.33451 -63.79759 36151 ft 498 kts 241°
2026-05-07 13:43 33.29150 -63.86276 36144 ft 498 kts 241°
2026-05-07 13:43 33.24850 -63.92776 36143 ft 499 kts 241°
2026-05-07 13:44 33.20563 -63.99247 36142 ft 500 kts 241°
2026-05-07 13:44 33.16239 -64.05760 36145 ft 500 kts 241°
2026-05-07 13:45 33.11915 -64.12264 36143 ft 500 kts 240°
2026-05-07 13:45 33.07589 -64.18759 36142 ft 499 kts 240°
2026-05-07 13:46 33.03258 -64.25250 36144 ft 500 kts 240°
2026-05-07 13:46 32.98943 -64.31704 36145 ft 500 kts 240°
2026-05-07 13:47 32.94594 -64.38199 36146 ft 500 kts 240°
2026-05-07 13:47 32.90282 -64.44627 36144 ft 500 kts 240°
2026-05-07 13:48 32.85940 -64.51089 36144 ft 499 kts 240°
2026-05-07 13:48 32.81588 -64.57554 36144 ft 499 kts 240°
2026-05-07 13:49 32.77246 -64.63995 36146 ft 498 kts 240°
2026-05-07 13:49 32.72935 -64.70375 36142 ft 498 kts 240°
2026-05-07 13:50 32.68597 -64.76787 36148 ft 497 kts 240°
2026-05-07 13:50 32.64269 -64.83172 36149 ft 496 kts 239°
2026-05-07 13:51 32.59943 -64.89544 36144 ft 495 kts 239°
2026-05-07 13:51 32.55613 -64.95911 36144 ft 495 kts 239°
2026-05-07 13:52 32.51317 -65.02218 36152 ft 495 kts 239°
2026-05-07 13:52 32.46979 -65.08573 36146 ft 494 kts 239°
2026-05-07 13:53 32.42657 -65.14895 36148 ft 493 kts 239°
2026-05-07 13:53 32.38356 -65.21177 36155 ft 493 kts 239°
2026-05-07 13:54 32.34031 -65.27483 36153 ft 492 kts 239°
2026-05-07 13:54 32.29710 -65.33771 36158 ft 491 kts 239°
2026-05-07 13:55 32.25415 -65.40014 36154 ft 491 kts 239°
2026-05-07 13:55 32.21090 -65.46288 36150 ft 491 kts 239°
2026-05-07 13:56 32.16799 -65.52502 36148 ft 491 kts 239°
2026-05-07 13:56 32.12466 -65.58767 36147 ft 492 kts 239°
2026-05-07 13:57 32.08140 -65.65010 36151 ft 491 kts 239°
2026-05-07 13:57 32.04540 -65.70200 36150 ft 491 kts 239°
2026-05-07 13:58 32.00204 -65.76440 36153 ft 492 kts 239°
2026-05-07 13:58 31.95856 -65.82686 36150 ft 492 kts 239°
2026-05-07 13:59 31.91545 -65.88870 36148 ft 491 kts 239°
2026-05-07 13:59 31.87195 -65.95099 36148 ft 491 kts 239°
2026-05-07 14:00 31.82855 -66.01305 36152 ft 491 kts 239°
2026-05-07 14:00 31.78535 -66.07470 36150 ft 491 kts 238°
2026-05-07 14:01 31.74184 -66.13671 36154 ft 492 kts 238°
2026-05-07 14:01 31.69821 -66.19878 36157 ft 491 kts 238°
2026-05-07 14:02 31.65475 -66.26050 36162 ft 490 kts 238°
2026-05-07 14:02 31.61119 -66.32229 36154 ft 490 kts 238°
2026-05-07 14:03 31.56791 -66.38356 36155 ft 490 kts 238°
2026-05-07 14:03 31.52435 -66.44514 36156 ft 490 kts 238°
2026-05-07 14:04 31.48073 -66.50669 36153 ft 490 kts 238°
2026-05-07 14:04 31.43731 -66.56788 36158 ft 490 kts 238°
2026-05-07 14:05 31.39363 -66.62932 36160 ft 491 kts 238°
2026-05-07 14:05 31.34988 -66.69076 36160 ft 490 kts 238°
2026-05-07 14:06 31.30647 -66.75163 36165 ft 490 kts 238°
2026-05-07 14:06 31.26270 -66.81293 36161 ft 490 kts 238°
2026-05-07 14:07 31.21892 -66.87411 36165 ft 490 kts 238°
2026-05-07 14:07 31.17540 -66.93485 36165 ft 490 kts 237°
2026-05-07 14:08 31.13162 -66.99586 36158 ft 490 kts 237°
2026-05-07 14:08 31.08771 -67.05694 36162 ft 489 kts 237°
2026-05-07 14:09 31.04421 -67.11737 36158 ft 489 kts 237°
2026-05-07 14:09 31.00044 -67.17807 36154 ft 489 kts 237°
2026-05-07 14:10 30.95652 -67.23888 36157 ft 490 kts 237°
2026-05-07 14:10 30.91256 -67.29966 36156 ft 491 kts 237°
2026-05-07 14:11 30.86874 -67.36015 36161 ft 492 kts 237°
2026-05-07 14:11 30.82455 -67.42105 36158 ft 492 kts 237°
2026-05-07 14:12 30.78028 -67.48196 36158 ft 493 kts 237°
2026-05-07 14:12 30.73599 -67.54281 36158 ft 493 kts 237°
2026-05-07 14:13 30.69210 -67.60385 36183 ft 488 kts 243°
2026-05-07 14:13 30.65641 -67.67006 36176 ft 483 kts 246°
2026-05-07 14:14 30.62152 -67.73644 36168 ft 484 kts 246°
2026-05-07 14:14 30.58635 -67.80319 36168 ft 483 kts 246°
2026-05-07 14:15 30.55121 -67.86983 36173 ft 483 kts 246°
2026-05-07 14:15 30.51627 -67.93593 36159 ft 483 kts 246°
2026-05-07 14:16 30.48109 -68.00239 36162 ft 482 kts 246°
2026-05-07 14:16 30.44598 -68.06861 36155 ft 481 kts 246°
2026-05-07 14:17 30.41090 -68.13467 36155 ft 481 kts 245°
2026-05-07 14:17 30.37574 -68.20076 36152 ft 481 kts 245°
2026-05-07 14:18 30.34077 -68.26638 36151 ft 481 kts 245°
2026-05-07 14:18 30.30559 -68.33229 36151 ft 481 kts 245°
2026-05-07 14:19 30.27035 -68.39821 36147 ft 481 kts 245°
2026-05-07 14:19 30.23502 -68.46418 36149 ft 481 kts 245°
2026-05-07 14:20 30.19997 -68.52953 36148 ft 481 kts 244°
2026-05-07 14:20 30.16462 -68.59531 36150 ft 481 kts 244°
2026-05-07 14:21 30.12924 -68.66106 36146 ft 481 kts 244°
2026-05-07 14:21 30.09405 -68.72634 36149 ft 481 kts 244°
2026-05-07 14:22 30.05865 -68.79191 36147 ft 481 kts 244°
2026-05-07 14:22 30.02318 -68.85749 36144 ft 480 kts 244°
2026-05-07 14:23 29.98778 -68.92284 36144 ft 480 kts 244°
2026-05-07 14:23 29.95253 -68.98781 36145 ft 480 kts 244°
2026-05-07 14:24 29.91702 -69.05315 36145 ft 480 kts 244°
2026-05-07 14:24 29.88151 -69.11839 36146 ft 480 kts 243°
2026-05-07 14:25 29.84615 -69.18323 36144 ft 479 kts 243°
2026-05-07 14:25 29.81071 -69.24813 36142 ft 478 kts 243°
2026-05-07 14:26 29.77527 -69.31293 36143 ft 478 kts 243°
2026-05-07 14:26 29.73973 -69.37780 36141 ft 478 kts 243°
2026-05-07 14:27 29.70441 -69.44216 36136 ft 478 kts 243°
2026-05-07 14:27 29.66885 -69.50687 36139 ft 478 kts 243°
2026-05-07 14:28 29.63322 -69.57161 36137 ft 478 kts 243°
2026-05-07 14:28 29.59756 -69.63627 36142 ft 478 kts 243°
2026-05-07 14:29 29.56194 -69.70079 36133 ft 478 kts 243°
2026-05-07 14:29 29.52648 -69.76489 36145 ft 478 kts 243°
2026-05-07 14:30 29.49075 -69.82941 36145 ft 478 kts 243°
2026-05-07 14:30 29.45501 -69.89381 36138 ft 478 kts 243°
2026-05-07 14:31 29.41926 -69.95815 36138 ft 478 kts 243°
2026-05-07 14:31 29.38347 -70.02246 36130 ft 478 kts 243°
2026-05-07 14:32 29.34781 -70.08642 36128 ft 478 kts 243°
2026-05-07 14:32 29.31194 -70.15067 36132 ft 478 kts 242°
2026-05-07 14:33 29.27610 -70.21476 36128 ft 478 kts 242°
2026-05-07 14:33 29.24016 -70.27894 36127 ft 478 kts 242°
2026-05-07 14:34 29.20435 -70.34278 36132 ft 478 kts 242°
2026-05-07 14:34 29.16841 -70.40675 36127 ft 478 kts 242°
2026-05-07 14:35 29.13243 -70.47069 36124 ft 477 kts 242°
2026-05-07 14:35 29.09670 -70.53411 36125 ft 477 kts 242°
2026-05-07 14:36 29.06069 -70.59792 36123 ft 477 kts 242°
2026-05-07 14:36 29.02459 -70.66178 36123 ft 477 kts 242°
2026-05-07 14:37 28.98876 -70.72506 36128 ft 477 kts 242°
2026-05-07 14:37 28.93458 -70.82059 36124 ft 477 kts 242°
2026-05-07 14:38 28.89842 -70.88422 36119 ft 477 kts 242°
2026-05-07 14:38 28.86222 -70.94782 36118 ft 477 kts 241°
2026-05-07 14:39 28.82670 -71.01117 36122 ft 476 kts 243°
2026-05-07 14:39 28.79178 -71.07543 36122 ft 476 kts 242°
2026-05-07 14:40 28.75627 -71.13927 36115 ft 476 kts 242°
2026-05-07 14:40 28.72101 -71.20340 36116 ft 477 kts 242°
2026-05-07 14:41 28.68577 -71.26691 36116 ft 477 kts 242°
2026-05-07 14:41 28.65037 -71.33087 36114 ft 477 kts 242°
2026-05-07 14:42 28.61494 -71.39466 36113 ft 477 kts 242°
2026-05-07 14:42 28.57948 -71.45847 36114 ft 477 kts 242°
2026-05-07 14:43 28.54394 -71.52228 36111 ft 477 kts 242°
2026-05-07 14:43 28.50836 -71.58610 36112 ft 478 kts 242°
2026-05-07 14:44 28.47293 -71.64953 36108 ft 478 kts 242°
2026-05-07 14:44 28.43721 -71.71340 36108 ft 478 kts 242°
2026-05-07 14:45 28.40151 -71.77714 36112 ft 478 kts 242°
2026-05-07 14:45 28.36598 -71.84047 36108 ft 478 kts 242°
2026-05-07 14:46 28.33024 -71.90409 36108 ft 477 kts 242°
2026-05-07 14:46 28.29410 -71.96732 36107 ft 478 kts 240°
2026-05-07 14:47 28.25727 -72.03031 36110 ft 477 kts 241°
2026-05-07 14:47 28.22092 -72.09332 36109 ft 477 kts 241°
2026-05-07 14:48 28.18451 -72.15574 36106 ft 477 kts 241°
2026-05-07 14:48 28.14800 -72.21861 36106 ft 477 kts 241°
2026-05-07 14:49 28.11760 -72.27072 36106 ft 476 kts 241°
2026-05-07 14:49 28.08102 -72.33343 36104 ft 477 kts 241°
2026-05-07 14:50 28.04440 -72.39607 36103 ft 477 kts 241°
2026-05-07 14:50 28.00778 -72.45865 36105 ft 476 kts 241°
2026-05-07 14:51 27.97137 -72.52077 36107 ft 477 kts 241°
2026-05-07 14:51 27.93463 -72.58336 36104 ft 478 kts 241°
2026-05-07 14:52 27.89781 -72.64601 36103 ft 478 kts 241°
2026-05-07 14:52 27.86091 -72.70868 36101 ft 479 kts 241°
2026-05-07 14:53 27.82389 -72.77149 36102 ft 479 kts 241°
2026-05-07 14:53 27.78711 -72.83378 36102 ft 479 kts 241°
2026-05-07 14:54 27.75000 -72.89656 36099 ft 480 kts 240°
2026-05-07 14:54 27.71284 -72.95931 36102 ft 480 kts 240°
2026-05-07 14:55 27.67605 -73.02136 36101 ft 479 kts 240°
2026-05-07 14:55 27.63895 -73.08386 36100 ft 479 kts 240°
2026-05-07 14:56 27.60185 -73.14624 36096 ft 479 kts 240°
2026-05-07 14:56 27.56467 -73.20868 36096 ft 479 kts 240°
2026-05-07 14:57 27.52776 -73.27057 36100 ft 479 kts 240°
2026-05-07 14:57 27.49051 -73.33296 36097 ft 480 kts 241°
2026-05-07 14:58 27.45324 -73.39527 36094 ft 479 kts 241°
2026-05-07 14:58 27.41598 -73.45749 36095 ft 478 kts 241°
2026-05-07 14:59 27.37877 -73.51954 36098 ft 477 kts 241°
2026-05-07 14:59 27.34176 -73.58118 36093 ft 477 kts 241°
2026-05-07 15:00 27.30449 -73.64314 36098 ft 478 kts 241°
2026-05-07 15:00 27.26715 -73.70515 36096 ft 479 kts 241°
2026-05-07 15:01 27.22977 -73.76712 36114 ft 479 kts 241°
2026-05-07 15:01 27.19258 -73.82871 36107 ft 479 kts 241°
2026-05-07 15:02 27.15512 -73.89065 36103 ft 479 kts 241°
2026-05-07 15:02 27.11758 -73.95264 36114 ft 479 kts 241°
2026-05-07 15:03 27.08006 -74.01449 36101 ft 479 kts 241°
2026-05-07 15:03 27.04257 -74.07624 36107 ft 478 kts 241°
2026-05-07 15:04 27.00508 -74.13787 36101 ft 478 kts 241°
2026-05-07 15:04 26.96755 -74.19950 36107 ft 478 kts 241°
2026-05-07 15:05 26.93001 -74.26106 36098 ft 478 kts 240°
2026-05-07 15:05 26.90035 -74.32592 36120 ft 467 kts 255°
2026-05-07 15:06 26.87836 -74.39440 36111 ft 469 kts 255°
2026-05-07 15:06 26.85627 -74.46314 36119 ft 469 kts 255°
2026-05-07 15:07 26.83412 -74.53185 36107 ft 468 kts 255°
2026-05-07 15:07 26.81207 -74.60020 36106 ft 468 kts 255°
2026-05-07 15:08 26.78992 -74.66869 36107 ft 468 kts 255°
2026-05-07 15:08 26.76775 -74.73713 36101 ft 468 kts 254°
2026-05-07 15:09 26.74553 -74.80559 36105 ft 468 kts 254°
2026-05-07 15:09 26.72326 -74.87407 36103 ft 468 kts 254°
2026-05-07 15:10 26.70096 -74.94253 36103 ft 468 kts 254°
2026-05-07 15:10 26.67874 -75.01060 36105 ft 469 kts 254°
2026-05-07 15:11 26.65629 -75.07924 36098 ft 469 kts 254°
2026-05-07 15:11 26.63385 -75.14774 36093 ft 469 kts 254°
2026-05-07 15:12 26.61148 -75.21588 36097 ft 469 kts 254°
2026-05-07 15:12 26.58897 -75.28434 36094 ft 469 kts 254°
2026-05-07 15:13 26.56638 -75.35290 36092 ft 469 kts 254°
2026-05-07 15:13 26.54378 -75.42140 36096 ft 470 kts 254°
2026-05-07 15:14 26.52112 -75.48992 36095 ft 470 kts 254°
2026-05-07 15:14 26.49855 -75.55805 36095 ft 469 kts 254°
2026-05-07 15:15 26.47589 -75.62634 36097 ft 468 kts 253°
2026-05-07 15:15 26.45333 -75.69419 36093 ft 469 kts 253°
2026-05-07 15:16 26.43061 -75.76240 36099 ft 468 kts 253°
2026-05-07 15:16 26.40784 -75.83064 36092 ft 468 kts 253°
2026-05-07 15:17 26.38509 -75.89870 36097 ft 468 kts 253°
2026-05-07 15:17 26.36240 -75.96645 36092 ft 469 kts 253°
2026-05-07 15:18 26.33952 -76.03467 36098 ft 470 kts 253°
2026-05-07 15:18 26.31653 -76.10306 36093 ft 470 kts 253°
2026-05-07 15:19 26.29355 -76.17131 36094 ft 471 kts 253°
2026-05-07 15:19 26.27068 -76.23910 36098 ft 470 kts 253°
2026-05-07 15:20 26.24762 -76.30734 36094 ft 471 kts 253°
2026-05-07 15:20 26.22445 -76.37577 36097 ft 471 kts 253°
2026-05-07 15:21 26.20132 -76.44398 36094 ft 471 kts 253°
2026-05-07 15:21 26.17816 -76.51215 36094 ft 471 kts 253°
2026-05-07 15:22 26.15509 -76.57995 36095 ft 471 kts 253°
2026-05-07 15:22 26.13186 -76.64809 36097 ft 472 kts 253°
2026-05-07 15:23 26.10850 -76.71647 36095 ft 472 kts 252°
2026-05-07 15:23 26.08512 -76.78479 36097 ft 472 kts 252°
2026-05-07 15:24 26.06165 -76.85327 36093 ft 473 kts 252°
2026-05-07 15:24 26.03832 -76.92121 36091 ft 473 kts 252°
2026-05-07 15:25 26.01478 -76.98964 36099 ft 473 kts 252°
2026-05-07 15:25 25.99124 -77.05797 36092 ft 473 kts 252°
2026-05-07 15:26 25.96763 -77.12635 36093 ft 474 kts 252°
2026-05-07 15:26 25.94399 -77.19470 36089 ft 473 kts 252°
2026-05-07 15:27 25.92049 -77.26255 36094 ft 474 kts 252°
2026-05-07 15:27 25.89677 -77.33091 36089 ft 474 kts 252°
2026-05-07 15:28 25.87301 -77.39925 36092 ft 474 kts 252°
2026-05-07 15:28 25.84921 -77.46758 36090 ft 474 kts 252°
2026-05-07 15:29 25.82553 -77.53547 36094 ft 474 kts 252°
2026-05-07 15:29 25.80167 -77.60374 36097 ft 474 kts 252°
2026-05-07 15:30 25.77783 -77.67187 36097 ft 473 kts 252°
2026-05-07 15:30 25.75394 -77.73997 36091 ft 473 kts 252°
2026-05-07 15:31 25.73004 -77.80803 36094 ft 473 kts 251°
2026-05-07 15:31 25.70610 -77.87606 36092 ft 473 kts 251°
2026-05-07 15:32 25.68214 -77.94403 36102 ft 474 kts 251°
2026-05-07 15:32 25.65826 -78.01167 36098 ft 474 kts 251°
2026-05-07 15:33 25.63419 -78.07972 36100 ft 473 kts 251°
2026-05-07 15:33 25.61013 -78.14764 36097 ft 473 kts 251°
2026-05-07 15:34 25.58606 -78.21539 36099 ft 473 kts 251°
2026-05-07 15:34 25.56195 -78.28280 36091 ft 473 kts 251°
2026-05-07 15:35 25.53770 -78.35065 36093 ft 473 kts 251°
2026-05-07 15:35 25.51344 -78.41833 36088 ft 472 kts 251°
2026-05-07 15:36 25.48917 -78.48599 36087 ft 472 kts 251°
2026-05-07 15:36 25.46504 -78.55311 36089 ft 472 kts 251°
2026-05-07 15:37 25.44072 -78.62064 36084 ft 471 kts 251°
2026-05-07 15:37 25.41644 -78.68798 36081 ft 471 kts 251°
2026-05-07 15:38 25.39208 -78.75541 36083 ft 471 kts 251°
2026-05-07 15:38 25.37186 -78.81129 36084 ft 471 kts 251°
2026-05-07 15:39 25.34749 -78.87856 36079 ft 471 kts 251°
2026-05-07 15:39 25.32304 -78.94591 36079 ft 472 kts 251°
2026-05-07 15:40 25.29872 -79.01281 36084 ft 472 kts 251°
2026-05-07 15:40 25.27418 -79.08018 36080 ft 472 kts 251°
2026-05-07 15:41 25.24967 -79.14738 36083 ft 471 kts 251°
2026-05-07 15:41 25.22511 -79.21462 36079 ft 472 kts 251°
2026-05-07 15:42 25.20048 -79.28190 36081 ft 472 kts 251°
2026-05-07 15:42 25.17582 -79.34918 36079 ft 473 kts 251°
2026-05-07 15:43 25.15126 -79.41607 36083 ft 473 kts 251°
2026-05-07 15:43 25.12650 -79.48342 36079 ft 474 kts 251°
2026-05-07 15:44 25.10169 -79.55076 36084 ft 473 kts 251°
2026-05-07 15:44 25.07686 -79.61806 36080 ft 473 kts 250°
2026-05-07 15:45 25.05201 -79.68529 36083 ft 473 kts 250°
2026-05-07 15:45 25.02710 -79.75258 36081 ft 473 kts 250°
2026-05-07 15:46 24.98984 -79.85304 36081 ft 473 kts 250°
2026-05-07 15:47 24.96490 -79.92015 36083 ft 473 kts 250°
2026-05-07 15:47 24.94008 -79.98683 36080 ft 473 kts 250°
2026-05-07 15:48 24.91501 -80.05404 36083 ft 473 kts 250°
2026-05-07 15:48 24.88994 -80.12119 36085 ft 473 kts 250°
2026-05-07 15:49 24.86482 -80.18835 36084 ft 473 kts 250°
2026-05-07 15:49 24.83985 -80.25499 36081 ft 472 kts 250°
2026-05-07 15:50 24.81476 -80.32185 36082 ft 471 kts 250°
2026-05-07 15:50 24.78966 -80.38864 36083 ft 471 kts 250°
2026-05-07 15:51 24.76469 -80.45497 36079 ft 472 kts 250°
2026-05-07 15:51 24.73951 -80.52176 36080 ft 472 kts 250°
2026-05-07 15:52 24.71758 -80.58948 36109 ft 468 kts 262°
2026-05-07 15:52 24.70931 -80.66034 36100 ft 467 kts 265°
2026-05-07 15:53 24.70199 -80.73084 36102 ft 466 kts 265°
2026-05-07 15:53 24.69451 -80.80174 36102 ft 466 kts 265°
2026-05-07 15:54 24.68702 -80.87277 36106 ft 467 kts 265°
2026-05-07 15:54 24.67947 -80.94387 36109 ft 468 kts 265°
2026-05-07 15:55 24.67190 -81.01498 36110 ft 468 kts 265°
2026-05-07 15:55 24.66434 -81.08561 36111 ft 468 kts 265°
2026-05-07 15:56 24.65669 -81.15673 36108 ft 468 kts 265°
2026-05-07 15:56 24.64896 -81.22789 36105 ft 468 kts 263°
2026-05-07 15:57 24.63419 -81.29774 36099 ft 470 kts 258°
2026-05-07 15:57 24.61827 -81.36746 36095 ft 470 kts 258°
2026-05-07 15:58 24.60231 -81.43699 36098 ft 469 kts 258°
2026-05-07 15:58 24.58632 -81.50660 36100 ft 470 kts 258°
2026-05-07 15:59 24.57028 -81.57622 36105 ft 470 kts 258°
2026-05-07 15:59 24.55430 -81.64545 36105 ft 470 kts 258°
2026-05-07 16:00 24.53820 -81.71504 36106 ft 470 kts 258°
2026-05-07 16:00 24.52205 -81.78466 36105 ft 470 kts 258°
2026-05-07 16:01 24.50587 -81.85429 36098 ft 470 kts 258°
2026-05-07 16:01 24.48969 -81.92373 36095 ft 469 kts 258°
2026-05-07 16:02 24.46793 -81.99081 36103 ft 473 kts 247°
2026-05-07 16:02 24.43944 -82.05598 36097 ft 473 kts 247°
2026-05-07 16:03 24.41094 -82.12110 36092 ft 473 kts 247°
2026-05-07 16:03 24.38245 -82.18611 36089 ft 473 kts 247°
2026-05-07 16:04 24.35390 -82.25117 36093 ft 473 kts 247°
2026-05-07 16:04 24.32528 -82.31629 36090 ft 473 kts 246°
2026-05-07 16:05 24.29671 -82.38120 36080 ft 473 kts 246°
2026-05-07 16:05 24.26826 -82.44575 36082 ft 473 kts 246°
2026-05-07 16:06 24.23962 -82.51062 36079 ft 472 kts 246°
2026-05-07 16:06 24.21095 -82.57551 36078 ft 472 kts 246°
2026-05-07 16:07 24.18246 -82.63987 36077 ft 472 kts 246°
2026-05-07 16:07 24.15374 -82.70466 36074 ft 472 kts 246°
2026-05-07 16:08 24.12499 -82.76944 36075 ft 472 kts 246°
2026-05-07 16:08 24.09622 -82.83416 36078 ft 472 kts 246°
2026-05-07 16:09 24.06769 -82.89827 36074 ft 471 kts 246°
2026-05-07 16:09 24.03897 -82.96271 36070 ft 470 kts 246°
2026-05-07 16:10 24.01023 -83.02711 36068 ft 471 kts 247°
2026-05-07 16:10 23.99091 -83.09484 36078 ft 467 kts 259°
2026-05-07 16:11 23.97690 -83.16376 36081 ft 467 kts 259°
2026-05-07 16:11 23.96281 -83.23295 36081 ft 466 kts 259°
2026-05-07 16:12 23.94868 -83.30213 36081 ft 466 kts 259°
2026-05-07 16:12 23.93456 -83.37119 36082 ft 465 kts 259°
2026-05-07 16:13 23.92034 -83.44045 36080 ft 465 kts 259°
2026-05-07 16:13 23.90623 -83.50910 36077 ft 465 kts 259°
2026-05-07 16:14 23.89203 -83.57796 36073 ft 465 kts 259°
2026-05-07 16:14 23.87778 -83.64694 36073 ft 465 kts 259°
2026-05-07 16:15 23.86351 -83.71585 36072 ft 465 kts 259°
2026-05-07 16:15 23.84917 -83.78492 36072 ft 465 kts 258°
2026-05-07 16:16 23.83490 -83.85346 36070 ft 465 kts 258°
2026-05-07 16:16 23.82052 -83.92242 36067 ft 465 kts 258°
2026-05-07 16:17 23.80612 -83.99129 36069 ft 464 kts 258°
2026-05-07 16:17 23.79170 -84.06009 36068 ft 464 kts 258°
2026-05-07 16:18 23.77725 -84.12887 36064 ft 464 kts 258°
2026-05-07 16:18 23.76289 -84.19710 36065 ft 464 kts 258°
2026-05-07 16:19 23.74838 -84.26583 36064 ft 464 kts 258°
2026-05-07 16:19 23.73383 -84.33456 36059 ft 464 kts 258°
2026-05-07 16:20 23.71923 -84.40337 36079 ft 469 kts 258°
2026-05-07 16:20 23.71187 -84.43800 36323 ft 469 kts 258°
2026-05-07 16:20 23.70447 -84.47277 36604 ft 469 kts 258°
2026-05-07 16:20 23.69708 -84.50741 36872 ft 468 kts 258°
2026-05-07 16:21 23.68972 -84.54196 37129 ft 467 kts 258°
2026-05-07 16:21 23.68233 -84.57658 37394 ft 467 kts 258°
2026-05-07 16:21 23.67495 -84.61109 37661 ft 466 kts 258°
2026-05-07 16:21 23.66758 -84.64549 37874 ft 467 kts 258°
2026-05-07 16:22 23.66019 -84.67999 38061 ft 468 kts 258°
2026-05-07 16:22 23.64534 -84.74918 38050 ft 472 kts 258°
2026-05-07 16:23 23.63039 -84.81865 38050 ft 469 kts 258°
2026-05-07 16:23 23.61548 -84.88784 38050 ft 468 kts 258°
2026-05-07 16:24 23.60055 -84.95690 38052 ft 467 kts 258°
2026-05-07 16:24 23.58561 -85.02588 38099 ft 467 kts 258°
2026-05-07 16:24 23.57827 -85.05969 38517 ft 463 kts 258°
2026-05-07 16:25 23.57085 -85.09383 38774 ft 462 kts 258°
2026-05-07 16:25 23.56346 -85.12787 38976 ft 462 kts 258°
2026-05-07 16:25 23.55605 -85.16188 39179 ft 461 kts 258°
2026-05-07 16:25 23.54862 -85.19592 39380 ft 461 kts 258°
2026-05-07 16:26 23.54121 -85.22989 39567 ft 461 kts 258°
2026-05-07 16:26 23.53379 -85.26386 39757 ft 460 kts 258°
2026-05-07 16:26 23.52636 -85.29780 39911 ft 461 kts 258°
2026-05-07 16:26 23.52140 -85.32045 40034 ft 461 kts 258°
2026-05-07 16:27 23.51149 -85.36570 40049 ft 465 kts 258°
2026-05-07 16:27 23.49645 -85.43417 40052 ft 463 kts 258°
2026-05-07 16:28 23.48388 -85.49127 40042 ft 461 kts 258°
2026-05-07 16:28 23.46892 -85.55917 40043 ft 461 kts 258°
2026-05-07 16:29 23.45404 -85.62668 40042 ft 461 kts 258°
2026-05-07 16:29 23.43901 -85.69465 40050 ft 461 kts 257°
2026-05-07 16:30 23.42396 -85.76256 40038 ft 461 kts 257°
2026-05-07 16:30 23.40890 -85.83045 40043 ft 461 kts 257°
2026-05-07 16:31 23.39380 -85.89829 40038 ft 461 kts 257°
2026-05-07 16:31 23.37868 -85.96609 40041 ft 461 kts 257°
2026-05-07 16:32 23.36351 -86.03398 40039 ft 462 kts 257°
2026-05-07 16:32 23.34830 -86.10202 40041 ft 463 kts 257°
2026-05-07 16:33 23.33312 -86.16968 40037 ft 464 kts 257°
2026-05-07 16:33 23.31781 -86.23785 40037 ft 463 kts 257°
2026-05-07 16:34 23.30250 -86.30582 40040 ft 462 kts 257°
2026-05-07 16:34 23.28715 -86.37373 40033 ft 462 kts 257°
2026-05-07 16:35 23.27169 -86.44163 40033 ft 462 kts 257°
2026-05-07 16:35 23.25632 -86.50920 40035 ft 463 kts 257°
2026-05-07 16:36 23.24077 -86.57729 40036 ft 463 kts 257°
2026-05-07 16:36 23.22521 -86.64537 40033 ft 463 kts 257°
2026-05-07 16:37 23.20966 -86.71330 40031 ft 463 kts 257°
2026-05-07 16:37 23.19422 -86.78081 40031 ft 463 kts 257°
2026-05-07 16:38 23.17864 -86.84866 40026 ft 462 kts 257°
2026-05-07 16:38 23.16303 -86.91654 40027 ft 462 kts 257°
2026-05-07 16:39 23.14740 -86.98436 40024 ft 462 kts 257°
2026-05-07 16:39 23.13182 -87.05182 40025 ft 463 kts 257°
2026-05-07 16:40 23.11609 -87.11978 40029 ft 463 kts 257°
2026-05-07 16:40 23.10035 -87.18764 40030 ft 463 kts 257°
2026-05-07 16:41 23.08459 -87.25543 40024 ft 463 kts 257°
2026-05-07 16:41 23.06879 -87.32330 40026 ft 463 kts 257°
2026-05-07 16:42 23.05304 -87.39079 40027 ft 464 kts 257°
2026-05-07 16:42 23.03717 -87.45867 40029 ft 464 kts 257°
2026-05-07 16:43 23.02122 -87.52673 40027 ft 464 kts 257°
2026-05-07 16:43 23.00528 -87.59461 40022 ft 464 kts 257°
2026-05-07 16:44 22.98933 -87.66242 40022 ft 463 kts 257°
2026-05-07 16:44 22.97346 -87.72971 40020 ft 463 kts 257°
2026-05-07 16:45 22.95744 -87.79753 40017 ft 464 kts 256°
2026-05-07 16:45 22.94137 -87.86543 40016 ft 463 kts 257°
2026-05-07 16:46 22.92666 -87.92744 40019 ft 464 kts 256°
2026-05-07 16:46 22.91085 -87.99394 40018 ft 465 kts 256°
2026-05-07 16:47 22.89467 -88.06191 40018 ft 465 kts 256°
2026-05-07 16:47 22.87855 -88.12949 40016 ft 466 kts 256°
2026-05-07 16:48 22.86229 -88.19748 40017 ft 465 kts 256°
2026-05-07 16:48 22.84601 -88.26545 40016 ft 465 kts 256°
2026-05-07 16:49 22.82972 -88.33337 40017 ft 465 kts 256°
2026-05-07 16:49 22.81339 -88.40127 40014 ft 465 kts 256°
2026-05-07 16:50 22.79713 -88.46878 40013 ft 465 kts 256°
2026-05-07 16:50 22.78074 -88.53666 40010 ft 464 kts 256°
2026-05-07 16:51 22.76432 -88.60451 40013 ft 465 kts 256°
2026-05-07 16:51 22.74794 -88.67196 40009 ft 465 kts 256°
2026-05-07 16:52 22.73145 -88.73977 40005 ft 465 kts 256°
2026-05-07 16:52 22.71492 -88.80759 40004 ft 466 kts 256°
2026-05-07 16:53 22.69838 -88.87533 40003 ft 465 kts 256°
2026-05-07 16:53 22.68171 -88.94342 40008 ft 470 kts 256°
2026-05-07 16:54 22.66494 -89.01184 40015 ft 473 kts 256°
2026-05-07 16:54 22.64803 -89.08067 40018 ft 473 kts 256°
2026-05-07 16:55 22.63110 -89.14946 40017 ft 472 kts 256°
2026-05-07 16:55 22.61414 -89.21822 40012 ft 473 kts 256°
2026-05-07 16:56 22.59716 -89.28693 40014 ft 472 kts 256°
2026-05-07 16:56 22.57164 -89.38996 40015 ft 476 kts 256°
2026-05-07 16:57 22.55443 -89.45925 40012 ft 476 kts 256°
2026-05-07 16:57 22.53721 -89.52848 40009 ft 476 kts 256°
2026-05-07 16:58 22.51999 -89.59755 40011 ft 475 kts 256°
2026-05-07 16:58 22.50285 -89.66616 40005 ft 475 kts 255°
2026-05-07 16:59 22.48558 -89.73517 40003 ft 476 kts 255°
2026-05-07 16:59 22.46828 -89.80432 40005 ft 476 kts 255°
2026-05-07 17:00 22.45095 -89.87346 40000 ft 476 kts 255°
2026-05-07 17:00 22.43359 -89.94259 40001 ft 476 kts 255°
2026-05-07 17:01 22.41630 -90.01131 39995 ft 476 kts 255°
2026-05-07 17:01 22.39888 -90.08040 39991 ft 476 kts 255°
2026-05-07 17:02 22.38140 -90.14958 39993 ft 476 kts 255°
2026-05-07 17:02 22.36393 -90.21860 39992 ft 476 kts 255°
2026-05-07 17:03 22.34643 -90.28762 39990 ft 476 kts 255°
2026-05-07 17:03 22.32899 -90.35621 39993 ft 476 kts 255°
2026-05-07 17:04 22.31137 -90.42523 39986 ft 476 kts 255°
2026-05-07 17:04 22.29369 -90.49443 39984 ft 477 kts 255°
2026-05-07 17:05 22.27600 -90.56353 39986 ft 477 kts 255°
2026-05-07 17:05 22.25843 -90.63203 39980 ft 477 kts 255°
2026-05-07 17:06 22.24070 -90.70104 39982 ft 477 kts 255°
2026-05-07 17:06 22.22292 -90.77012 39979 ft 477 kts 255°
2026-05-07 17:07 22.20509 -90.83923 39976 ft 477 kts 255°
2026-05-07 17:07 22.18727 -90.90818 39978 ft 477 kts 255°
2026-05-07 17:08 22.16940 -90.97722 39979 ft 477 kts 254°
2026-05-07 17:08 22.15161 -91.04580 39976 ft 477 kts 254°
2026-05-07 17:09 22.13369 -91.11478 39971 ft 477 kts 254°
2026-05-07 17:09 22.11573 -91.18374 39974 ft 477 kts 254°
2026-05-07 17:10 22.09775 -91.25266 39970 ft 477 kts 254°
2026-05-07 17:10 22.07985 -91.32116 39969 ft 477 kts 254°
2026-05-07 17:11 22.06182 -91.39005 39968 ft 477 kts 254°
2026-05-07 17:11 22.04375 -91.45892 39965 ft 477 kts 254°
2026-05-07 17:12 22.02564 -91.52777 39964 ft 477 kts 254°
2026-05-07 17:12 22.00750 -91.59662 39966 ft 477 kts 254°
2026-05-07 17:13 21.98932 -91.66550 39960 ft 477 kts 254°
2026-05-07 17:13 21.97112 -91.73431 39959 ft 477 kts 254°
2026-05-07 17:14 21.95300 -91.80272 39957 ft 477 kts 254°
2026-05-07 17:14 21.93474 -91.87150 39954 ft 477 kts 253°
2026-05-07 17:15 21.91955 -91.92863 39961 ft 477 kts 253°
2026-05-07 17:15 21.90124 -91.99739 39959 ft 477 kts 253°
2026-05-07 17:16 21.87991 -92.07733 39952 ft 477 kts 253°
2026-05-07 17:16 21.86451 -92.13496 39952 ft 477 kts 253°
2026-05-07 17:17 21.84624 -92.20316 39950 ft 477 kts 253°
2026-05-07 17:17 21.82782 -92.27185 39950 ft 477 kts 253°
2026-05-07 17:18 21.80938 -92.34047 39950 ft 477 kts 253°
2026-05-07 17:18 21.79091 -92.40907 39949 ft 477 kts 253°
2026-05-07 17:19 21.77254 -92.47719 39948 ft 477 kts 253°
2026-05-07 17:19 21.75400 -92.54583 39945 ft 477 kts 253°
2026-05-07 17:20 21.73546 -92.61431 39943 ft 477 kts 253°
2026-05-07 17:20 21.71697 -92.68251 39943 ft 477 kts 253°
2026-05-07 17:21 21.69839 -92.75092 39939 ft 477 kts 253°
2026-05-07 17:21 21.67977 -92.81939 39937 ft 476 kts 253°
2026-05-07 17:22 21.66113 -92.88779 39937 ft 476 kts 253°
2026-05-07 17:22 21.64254 -92.95587 39935 ft 476 kts 253°
2026-05-07 17:23 21.62385 -93.02423 39937 ft 476 kts 253°
2026-05-07 17:23 21.60511 -93.09263 39931 ft 476 kts 253°
2026-05-07 17:24 21.58634 -93.16103 39929 ft 476 kts 253°
2026-05-07 17:24 21.56770 -93.22888 39933 ft 476 kts 253°
2026-05-07 17:25 21.54888 -93.29719 39929 ft 476 kts 253°
2026-05-07 17:25 21.53006 -93.36545 39925 ft 476 kts 253°
2026-05-07 17:26 21.51122 -93.43361 39928 ft 476 kts 253°
2026-05-07 17:26 21.49236 -93.50177 39922 ft 476 kts 253°
2026-05-07 17:27 21.47343 -93.57002 39920 ft 476 kts 253°
2026-05-07 17:27 21.45461 -93.63777 39918 ft 476 kts 253°
2026-05-07 17:28 21.43569 -93.70576 39915 ft 474 kts 253°
2026-05-07 17:28 21.41686 -93.77333 39913 ft 473 kts 253°
2026-05-07 17:29 21.39793 -93.84111 39906 ft 473 kts 254°
2026-05-07 17:29 21.37888 -93.90931 39910 ft 480 kts 254°
2026-05-07 17:30 21.35952 -93.97837 39922 ft 486 kts 254°
2026-05-07 17:30 21.34000 -94.04795 39919 ft 485 kts 254°
2026-05-07 17:31 21.32065 -94.11677 39920 ft 484 kts 254°
2026-05-07 17:31 21.30121 -94.18584 39919 ft 483 kts 254°
2026-05-07 17:32 21.28173 -94.25489 39914 ft 483 kts 254°
2026-05-07 17:32 21.26221 -94.32397 39913 ft 483 kts 254°
2026-05-07 17:33 21.24285 -94.39238 39908 ft 482 kts 254°
2026-05-07 17:33 21.22332 -94.46126 39911 ft 482 kts 254°
2026-05-07 17:34 21.20382 -94.52992 39907 ft 481 kts 254°
2026-05-07 17:34 21.18430 -94.59855 39910 ft 481 kts 254°
2026-05-07 17:35 21.16474 -94.66719 39905 ft 481 kts 253°
2026-05-07 17:35 21.14527 -94.73541 39906 ft 481 kts 253°
2026-05-07 17:36 21.12565 -94.80404 39900 ft 482 kts 253°
2026-05-07 17:36 21.10596 -94.87278 39903 ft 482 kts 253°
2026-05-07 17:37 21.08625 -94.94149 39900 ft 482 kts 253°
2026-05-07 17:37 21.06759 -95.00996 39926 ft 482 kts 260°
2026-05-07 17:38 21.05470 -95.08039 39899 ft 481 kts 259°
2026-05-07 17:38 21.04172 -95.15069 39896 ft 481 kts 259°
2026-05-07 17:39 21.02878 -95.22091 39896 ft 480 kts 259°
2026-05-07 17:39 21.01092 -95.28959 39918 ft 481 kts 245°
2026-05-07 17:40 20.97792 -95.35197 39890 ft 481 kts 240°
2026-05-07 17:40 20.94381 -95.41317 39895 ft 482 kts 240°
2026-05-07 17:41 20.90949 -95.47483 39896 ft 481 kts 240°
2026-05-07 17:41 20.87515 -95.53629 39895 ft 481 kts 240°
2026-05-07 17:42 20.84098 -95.59735 39895 ft 482 kts 240°
2026-05-07 17:42 20.80657 -95.65881 39897 ft 481 kts 240°
2026-05-07 17:43 20.77210 -95.72028 39891 ft 481 kts 240°
2026-05-07 17:43 20.73766 -95.78166 39885 ft 482 kts 240°
2026-05-07 17:44 20.70316 -95.84306 39889 ft 481 kts 240°
2026-05-07 17:44 20.66863 -95.90446 39886 ft 481 kts 240°
2026-05-07 17:45 20.63440 -95.96524 39882 ft 481 kts 240°
2026-05-07 17:45 20.59975 -96.02673 39882 ft 482 kts 240°
2026-05-07 17:46 20.56512 -96.08808 39883 ft 482 kts 240°
2026-05-07 17:46 20.53325 -96.15017 39896 ft 479 kts 251°
2026-05-07 17:47 20.51688 -96.21896 39877 ft 479 kts 258°
2026-05-07 17:47 20.50356 -96.28869 39882 ft 479 kts 259°
2026-05-07 17:48 20.49019 -96.35843 39886 ft 479 kts 258°
2026-05-07 17:48 20.47681 -96.42803 39885 ft 478 kts 258°
2026-05-07 17:49 20.46349 -96.49722 39881 ft 479 kts 258°
2026-05-07 17:49 20.45006 -96.56680 39879 ft 478 kts 258°
2026-05-07 17:50 20.43663 -96.63626 39876 ft 477 kts 258°
2026-05-07 17:50 20.42328 -96.70510 39875 ft 477 kts 258°
2026-05-07 17:51 20.40986 -96.77421 39876 ft 476 kts 258°
2026-05-07 17:51 20.39639 -96.84333 39869 ft 476 kts 257°
2026-05-07 17:52 20.37829 -96.91125 39868 ft 477 kts 254°
2026-05-07 17:52 20.35958 -96.97899 39867 ft 476 kts 254°
2026-05-07 17:53 20.34078 -97.04668 39867 ft 476 kts 253°
2026-05-07 17:53 20.32194 -97.11452 39868 ft 476 kts 253°
2026-05-07 17:54 20.30313 -97.18211 39864 ft 476 kts 253°
2026-05-07 17:54 20.28439 -97.24935 39870 ft 476 kts 253°
2026-05-07 17:55 20.26549 -97.31704 39871 ft 476 kts 253°
2026-05-07 17:55 20.24655 -97.38476 39882 ft 477 kts 253°
2026-05-07 17:56 20.22754 -97.45264 39894 ft 478 kts 253°
2026-05-07 17:56 20.20861 -97.52012 39897 ft 478 kts 253°
2026-05-07 17:57 20.19278 -97.57647 39906 ft 478 kts 253°
2026-05-07 17:57 20.17066 -97.65508 39922 ft 478 kts 253°
2026-05-07 17:58 20.15137 -97.72349 39935 ft 472 kts 253°
2026-05-07 17:58 20.13289 -97.78896 39285 ft 465 kts 253°
2026-05-07 17:59 20.12355 -97.82200 38628 ft 468 kts 253°
2026-05-07 17:59 20.11414 -97.85525 37904 ft 471 kts 252°
2026-05-07 17:59 20.10466 -97.88878 37207 ft 473 kts 252°
2026-05-07 17:59 20.09512 -97.92244 36484 ft 476 kts 252°
2026-05-07 18:00 20.08552 -97.95628 35737 ft 480 kts 252°
2026-05-07 18:00 20.07583 -97.99044 34962 ft 484 kts 252°
2026-05-07 18:00 20.06601 -98.02501 34166 ft 489 kts 252°
2026-05-07 18:00 20.05609 -98.05991 33274 ft 494 kts 252°
2026-05-07 18:01 20.04609 -98.09506 32382 ft 497 kts 252°
2026-05-07 18:01 20.03601 -98.13046 31452 ft 502 kts 252°
2026-05-07 18:01 20.02599 -98.16562 30542 ft 506 kts 252°
2026-05-07 18:01 20.01722 -98.20166 30091 ft 500 kts 257°
2026-05-07 18:02 20.00297 -98.27245 29980 ft 484 kts 256°
2026-05-07 18:02 19.99580 -98.30771 29992 ft 492 kts 256°
2026-05-07 18:03 19.98143 -98.37932 30012 ft 498 kts 256°
2026-05-07 18:03 19.96677 -98.45161 30028 ft 498 kts 256°
2026-05-07 18:04 19.95230 -98.52306 30029 ft 499 kts 256°
2026-05-07 18:04 19.94492 -98.55940 29906 ft 501 kts 256°
2026-05-07 18:04 19.94002 -98.58349 29580 ft 503 kts 256°
2026-05-07 18:04 19.93265 -98.61972 28958 ft 500 kts 256°
2026-05-07 18:05 19.92544 -98.65519 28377 ft 491 kts 256°
2026-05-07 18:05 19.91821 -98.69067 27800 ft 487 kts 256°
2026-05-07 18:05 19.91104 -98.72572 27264 ft 483 kts 256°
2026-05-07 18:05 19.90586 -98.76095 26734 ft 481 kts 261°
2026-05-07 18:06 19.90203 -98.79615 26196 ft 478 kts 261°
2026-05-07 18:06 19.89815 -98.83107 25656 ft 475 kts 261°
2026-05-07 18:06 19.89424 -98.86589 25129 ft 472 kts 261°
2026-05-07 18:06 19.89103 -98.90050 24612 ft 471 kts 266°
2026-05-07 18:07 19.89253 -98.93520 24060 ft 470 kts 271°
2026-05-07 18:07 19.89486 -98.96961 23470 ft 467 kts 271°
2026-05-07 18:07 19.89725 -99.00396 22915 ft 463 kts 271°
2026-05-07 18:07 19.89951 -99.03703 22366 ft 433 kts 271°
2026-05-07 18:08 19.90158 -99.06789 21853 ft 406 kts 271°
2026-05-07 18:08 19.90348 -99.09655 21374 ft 383 kts 271°
2026-05-07 18:08 19.90529 -99.12397 20916 ft 362 kts 271°
2026-05-07 18:08 19.90704 -99.15001 20480 ft 345 kts 270°
2026-05-07 18:09 19.90869 -99.17484 20051 ft 330 kts 270°
2026-05-07 18:09 19.91027 -99.19905 19652 ft 330 kts 270°
2026-05-07 18:09 19.91186 -99.22350 19007 ft 330 kts 270°
2026-05-07 18:09 19.91348 -99.24748 18508 ft 320 kts 270°
2026-05-07 18:10 19.91503 -99.27079 18072 ft 317 kts 270°
2026-05-07 18:10 19.91524 -99.29416 17742 ft 311 kts 256°
2026-05-07 18:10 19.91009 -99.31600 17727 ft 302 kts 252°
2026-05-07 18:10 19.90493 -99.33760 17709 ft 302 kts 252°
2026-05-07 18:11 19.89962 -99.35938 17689 ft 306 kts 252°
2026-05-07 18:11 19.89420 -99.38126 17690 ft 307 kts 252°
2026-05-07 18:11 19.88877 -99.40332 17694 ft 309 kts 252°
2026-05-07 18:11 19.88338 -99.42539 17695 ft 309 kts 252°
2026-05-07 18:12 19.87745 -99.44724 17697 ft 306 kts 243°
2026-05-07 18:12 19.86576 -99.46572 17704 ft 301 kts 224°
2026-05-07 18:12 19.85141 -99.48188 17697 ft 301 kts 223°
2026-05-07 18:12 19.83682 -99.49779 17701 ft 300 kts 223°
2026-05-07 18:13 19.82235 -99.51375 17700 ft 300 kts 224°
2026-05-07 18:13 19.80741 -99.52915 17704 ft 298 kts 212°
2026-05-07 18:13 19.78881 -99.53819 17717 ft 293 kts 191°
2026-05-07 18:13 19.77544 -99.53989 17722 ft 294 kts 177°
2026-05-07 18:14 19.76413 -99.53858 17701 ft 295 kts 165°
2026-05-07 18:14 19.74540 -99.52999 17736 ft 295 kts 146°
2026-05-07 18:14 19.73090 -99.51463 17721 ft 298 kts 126°
2026-05-07 18:14 19.71951 -99.49596 17400 ft 305 kts 123°
2026-05-07 18:15 19.70835 -99.47674 17034 ft 306 kts 123°
2026-05-07 18:15 19.69718 -99.45759 16695 ft 305 kts 123°
2026-05-07 18:15 19.68602 -99.43878 16348 ft 305 kts 123°
2026-05-07 18:15 19.67457 -99.41949 16001 ft 305 kts 123°
2026-05-07 18:16 19.66332 -99.40048 15657 ft 304 kts 123°
2026-05-07 18:16 19.65226 -99.38173 15323 ft 296 kts 123°
2026-05-07 18:16 19.64164 -99.36376 15006 ft 285 kts 123°
2026-05-07 18:16 19.63138 -99.34647 14721 ft 285 kts 123°
2026-05-07 18:17 19.62084 -99.32867 14427 ft 285 kts 123°
2026-05-07 18:17 19.61028 -99.31085 14169 ft 284 kts 123°
2026-05-07 18:17 19.59945 -99.29333 13869 ft 284 kts 129°
2026-05-07 18:17 19.58437 -99.27997 13539 ft 283 kts 144°
2026-05-07 18:18 19.56892 -99.26798 13239 ft 275 kts 143°
2026-05-07 18:18 19.55370 -99.25600 12946 ft 261 kts 143°
2026-05-07 18:18 19.53940 -99.24487 12677 ft 251 kts 144°
2026-05-07 18:18 19.52335 -99.23793 12407 ft 254 kts 173°
2026-05-07 18:19 19.50573 -99.23947 12153 ft 255 kts 190°
2026-05-07 18:19 19.48836 -99.24324 11887 ft 255 kts 192°
2026-05-07 18:19 19.47104 -99.24717 11620 ft 254 kts 191°
2026-05-07 18:19 19.45383 -99.25078 11326 ft 248 kts 190°
2026-05-07 18:20 19.43718 -99.25395 11045 ft 239 kts 186°
2026-05-07 18:20 19.42130 -99.25110 10677 ft 232 kts 153°
2026-05-07 18:20 19.40750 -99.24258 10419 ft 230 kts 147°
2026-05-07 18:20 19.39402 -99.23387 10194 ft 224 kts 146°
2026-05-07 18:21 19.38098 -99.22549 9960 ft 216 kts 146°
2026-05-07 18:21 19.37048 -99.21475 9688 ft 213 kts 115°
2026-05-07 18:21 19.36938 -99.19965 9495 ft 207 kts 77°
2026-05-07 18:21 19.37298 -99.18494 9374 ft 206 kts 71°
2026-05-07 18:22 19.37922 -99.17137 9225 ft 201 kts 59°
2026-05-07 18:22 19.38389 -99.16310 9106 ft 195 kts 59°
2026-05-07 18:22 19.39270 -99.14742 8905 ft 170 kts 58°
2026-05-07 18:22 19.39858 -99.13697 8812 ft 164 kts 58°
2026-05-07 18:23 19.40462 -99.12618 8562 ft 179 kts 58°
2026-05-07 18:23 19.41093 -99.11468 8205 ft 178 kts 58°
2026-05-07 18:23 19.41710 -99.10337 7878 ft 178 kts 56°
2026-05-07 18:23 19.42327 -99.09226 7542 ft 172 kts 54°
2026-05-07 18:24 19.42934 -99.08157 7324 ft 164 kts 54°
2026-05-07 18:24 19.43470 -99.07220 7308 ft 125 kts 58°
2026-05-07 18:24 19.43746 -99.06716 7309 ft 43 kts 58°
2026-05-07 18:24 19.43828 -99.06573 7308 ft 15 kts 58°
2026-05-07 18:25 19.43888 -99.06467 7309 ft 18 kts 57°
2026-05-07 18:25 19.43948 -99.06334 7307 ft 22 kts 73°
2026-05-07 18:25 19.43970 -99.06167 7308 ft 18 kts 93°
2026-05-07 18:25 19.43952 -99.06071 7309 ft 8 kts 140°
2026-05-07 18:26 19.43913 -99.06078 7308 ft 6 kts 238°
2026-05-07 18:26 19.43880 -99.06139 7309 ft 13 kts 240°
2026-05-07 18:26 19.43823 -99.06244 7308 ft 20 kts 239°
2026-05-07 18:26 19.43743 -99.06384 7308 ft 22 kts 239°
2026-05-07 18:27 19.43669 -99.06521 7308 ft 21 kts 241°
2026-05-07 18:27 19.43599 -99.06645 7308 ft 19 kts 238°
2026-05-07 18:27 19.43514 -99.06723 7308 ft 15 kts 207°
2026-05-07 18:27 19.43432 -99.06777 7308 ft 12 kts 231°
2026-05-07 18:28 19.43408 -99.06853 7308 ft 10 kts 248°
2026-05-07 18:28 19.43376 -99.06909 7309 ft 8 kts 239°
2026-05-07 18:28 19.43347 -99.06961 7308 ft 8 kts 239°
2026-05-07 18:28 19.43316 -99.07017 7308 ft 9 kts 238°
2026-05-07 18:29 19.43282 -99.07077 7308 ft 10 kts 239°
2026-05-07 18:29 19.43265 -99.07143 7308 ft 10 kts 260°
2026-05-07 18:29 19.43257 -99.07213 7308 ft 10 kts 264°
2026-05-07 18:29 19.43238 -99.07279 7308 ft 9 kts 240°
2026-05-07 18:30 19.43205 -99.07338 7309 ft 10 kts 239°
2026-05-07 18:30 19.43169 -99.07403 7308 ft 11 kts 239°
2026-05-07 18:30 19.43129 -99.07471 7308 ft 11 kts 237°
2026-05-07 18:30 19.43085 -99.07547 7308 ft 13 kts 239°
2026-05-07 18:31 19.43036 -99.07634 7308 ft 15 kts 240°
2026-05-07 18:31 19.42983 -99.07731 7309 ft 16 kts 233°
2026-05-07 18:31 19.42899 -99.07814 7308 ft 17 kts 210°
2026-05-07 18:31 19.42793 -99.07878 7308 ft 18 kts 198°
2026-05-07 18:32 19.42697 -99.07847 7308 ft 14 kts 149°
2026-05-07 18:32 19.42623 -99.07800 7308 ft 7 kts 149°
2026-05-07 18:32 19.42598 -99.07787 7308 ft 2 kts 149°
2026-05-07 18:32 19.42582 -99.07775 7308 ft 4 kts 145°
2026-05-07 18:33 19.42541 -99.07755 7308 ft 7 kts 176°
2026-05-07 18:33 19.42516 -99.07765 7308 ft 3 kts 210°
2026-05-07 18:33 19.42497 -99.07777 7308 ft 3 kts 212°
2026-05-07 18:33 19.42479 -99.07789 7308 ft 3 kts 214°
2026-05-07 18:34 19.42466 -99.07799 7308 ft 1 kts 214°
2026-05-07 18:34 19.42465 -99.07799 7308 ft 0 kts 214°